Wetterdaten: aktuell Samstag, 03.06.2023 17:08
Datum Zeit Temp. I. Temp. 2m Temp. 5cm Temp. Gr 2m LF I. Luftf.2m LG Graben Luftdruck Regen Wind Richtung Richtung Taupunkt Windchill Windben
03.06.2023 17:08 23,7 C 19,6 C 18,6 C 20,6 C 44 % 46 % 44 % 1020,6 hPa 0,0 l/m 5,5 km/h (1 Bft) S 180 7,7 C 19,6 C 12,1 km/h (2 Bft)
03.06.2023 17:06 23,7 C 19,7 C 18,7 C 20,7 C 44 % 45 % 44 % 1020,6 hPa 0,0 l/m 6,4 km/h (2 Bft) SW 225 7,4 C 19,7 C 12,1 km/h (2 Bft)
03.06.2023 17:04 23,6 C 19,8 C 18,6 C 20,8 C 44 % 44 % 45 % 1020,6 hPa 0,0 l/m 5,8 km/h (2 Bft) W-SW 247 7,2 C 19,8 C 6,0 km/h (2 Bft)
03.06.2023 17:02 23,7 C 20,0 C 18,7 C 20,7 C 44 % 45 % 44 % 1020,6 hPa 0,0 l/m 5,6 km/h (1 Bft) SO 135 7,7 C 20,0 C 11,3 km/h (2 Bft)
03.06.2023 17:00 23,6 C 20,0 C 18,6 C 20,9 C 44 % 45 % 44 % 1020,6 hPa 0,0 l/m 5,0 km/h (1 Bft) W 270 7,7 C 20,0 C 13,0 km/h (3 Bft)
03.06.2023 16:58 23,6 C 19,9 C 18,8 C 21,0 C 44 % 45 % 44 % 1020,6 hPa 0,0 l/m 5,3 km/h (1 Bft) O 90 7,6 C 19,9 C 16,2 km/h (3 Bft)
03.06.2023 16:56 23,6 C 20,1 C 19,0 C 21,0 C 44 % 45 % 44 % 1020,6 hPa 0,0 l/m 4,5 km/h (1 Bft) S-SW 202 7,8 C 20,1 C 16,2 km/h (3 Bft)
03.06.2023 16:54 23,6 C 20,3 C 19,2 C 21,1 C 44 % 46 % 44 % 1020,6 hPa 0,0 l/m 4,7 km/h (1 Bft) S-SO 157 8,3 C 20,3 C 15,2 km/h (3 Bft)
03.06.2023 16:52 23,6 C 20,2 C 19,1 C 21,1 C 44 % 46 % 45 % 1020,6 hPa 0,0 l/m 4,7 km/h (1 Bft) W 270 8,2 C 20,2 C 8,9 km/h (2 Bft)
03.06.2023 16:50 23,6 C 20,0 C 19,1 C 21,0 C 44 % 46 % 45 % 1020,6 hPa 0,0 l/m 5,0 km/h (1 Bft) O-NO 67 8,0 C 20,0 C 12,6 km/h (3 Bft)
03.06.2023 16:48 23,6 C 19,9 C 19,3 C 20,7 C 44 % 45 % 45 % 1020,6 hPa 0,0 l/m 4,8 km/h (1 Bft) SW 225 7,6 C 19,9 C 13,8 km/h (3 Bft)
03.06.2023 16:46 23,6 C 20,1 C 19,7 C 20,7 C 44 % 45 % 45 % 1020,6 hPa 0,0 l/m 4,5 km/h (1 Bft) SW 225 7,8 C 20,1 C 13,8 km/h (3 Bft)
03.06.2023 16:44 23,6 C 20,4 C 19,9 C 20,6 C 44 % 46 % 44 % 1020,6 hPa 0,0 l/m 3,9 km/h (1 Bft) W-SW 247 8,4 C 20,4 C 8,2 km/h (2 Bft)
03.06.2023 16:42 23,6 C 20,7 C 20,0 C 20,6 C 44 % 45 % 44 % 1020,6 hPa 0,0 l/m 4,0 km/h (1 Bft) N 360 8,3 C 20,7 C 8,4 km/h (2 Bft)
03.06.2023 16:40 23,6 C 20,6 C 20,2 C 20,6 C 44 % 47 % 44 % 1020,6 hPa 0,0 l/m 4,0 km/h (1 Bft) NO 45 8,9 C 20,6 C 8,7 km/h (2 Bft)
03.06.2023 16:38 23,6 C 20,5 C 20,4 C 20,5 C 44 % 46 % 44 % 1020,6 hPa 0,0 l/m 4,0 km/h (1 Bft) N 360 8,5 C 20,5 C 8,7 km/h (2 Bft)
03.06.2023 16:36 23,6 C 20,5 C 20,5 C 20,6 C 44 % 46 % 44 % 1020,6 hPa 0,0 l/m 4,0 km/h (1 Bft) S-SW 202 8,5 C 20,5 C 11,3 km/h (2 Bft)
03.06.2023 16:34 23,6 C 20,1 C 20,0 C 20,6 C 44 % 44 % 44 % 1020,6 hPa 0,0 l/m 4,5 km/h (1 Bft) N-NW 337 7,5 C 20,1 C 11,3 km/h (2 Bft)
03.06.2023 16:32 23,6 C 20,2 C 19,8 C 20,7 C 44 % 43 % 44 % 1020,6 hPa 0,0 l/m 4,3 km/h (1 Bft) NW 315 7,2 C 20,2 C 17,4 km/h (3 Bft)
03.06.2023 16:30 23,6 C 20,4 C 20,2 C 20,9 C 44 % 44 % 44 % 1020,6 hPa 0,0 l/m 4,7 km/h (1 Bft) S-SW 202 7,7 C 20,4 C 17,4 km/h (3 Bft)
03.06.2023 16:28 23,6 C 20,2 C 20,3 C 21,2 C 44 % 45 % 45 % 1020,9 hPa 0,0 l/m 4,8 km/h (1 Bft) SO 135 7,9 C 20,2 C 12,1 km/h (2 Bft)
03.06.2023 16:26 23,6 C 20,2 C 19,6 C 21,0 C 44 % 45 % 44 % 1020,9 hPa 0,0 l/m 5,1 km/h (1 Bft) N-NW 337 7,9 C 20,2 C 12,1 km/h (2 Bft)
03.06.2023 16:24 23,6 C 20,1 C 19,3 C 21,0 C 44 % 45 % 44 % 1020,9 hPa 0,0 l/m 5,0 km/h (1 Bft) O-NO 67 7,8 C 20,1 C 11,8 km/h (2 Bft)
03.06.2023 16:22 23,6 C 19,9 C 19,4 C 20,8 C 44 % 45 % 45 % 1020,9 hPa 0,0 l/m 5,1 km/h (1 Bft) O-NO 67 7,6 C 19,9 C 11,8 km/h (2 Bft)
03.06.2023 16:20 23,6 C 19,9 C 19,5 C 20,7 C 44 % 45 % 45 % 1020,9 hPa 0,0 l/m 5,0 km/h (1 Bft) W-SW 247 7,6 C 19,9 C 12,3 km/h (3 Bft)
03.06.2023 16:18 23,6 C 20,0 C 20,2 C 20,5 C 44 % 44 % 44 % 1020,9 hPa 0,0 l/m 4,5 km/h (1 Bft) S-SW 202 7,4 C 20,0 C 12,3 km/h (3 Bft)
03.06.2023 16:16 23,6 C 20,3 C 20,8 C 20,5 C 44 % 45 % 44 % 1020,9 hPa 0,0 l/m 4,0 km/h (1 Bft) S-SO 157 8,0 C 20,3 C 10,1 km/h (2 Bft)
03.06.2023 16:14 23,6 C 20,4 C 21,2 C 20,5 C 44 % 46 % 45 % 1020,9 hPa 0,0 l/m 3,9 km/h (1 Bft) S-SW 202 8,4 C 20,4 C 7,5 km/h (2 Bft)
03.06.2023 16:12 23,7 C 20,2 C 21,5 C 20,5 C 44 % 46 % 44 % 1020,9 hPa 0,0 l/m 3,5 km/h (1 Bft) NW 315 8,2 C 20,2 C 10,4 km/h (2 Bft)
03.06.2023 16:10 23,6 C 20,2 C 20,7 C 20,5 C 44 % 45 % 45 % 1020,9 hPa 0,0 l/m 4,3 km/h (1 Bft) NW 315 7,9 C 20,2 C 10,4 km/h (2 Bft)
03.06.2023 16:08 23,6 C 20,3 C 20,4 C 20,5 C 44 % 45 % 45 % 1021,0 hPa 0,0 l/m 4,3 km/h (1 Bft) SW 225 8,0 C 20,3 C 7,0 km/h (2 Bft)
03.06.2023 16:06 23,6 C 20,1 C 20,1 C 20,3 C 44 % 44 % 45 % 1021,0 hPa 0,0 l/m 4,8 km/h (1 Bft) N-NW 337 7,5 C 20,1 C 14,0 km/h (3 Bft)
03.06.2023 16:04 23,6 C 20,4 C 21,0 C 20,3 C 44 % 45 % 45 % 1021,0 hPa 0,0 l/m 4,7 km/h (1 Bft) SO 135 8,1 C 20,4 C 14,0 km/h (3 Bft)
03.06.2023 16:02 23,6 C 20,4 C 21,0 C 20,3 C 44 % 45 % 45 % 1021,0 hPa 0,0 l/m 5,3 km/h (1 Bft) N 360 8,1 C 20,4 C 19,8 km/h (3 Bft)
03.06.2023 16:00 23,6 C 20,7 C 21,9 C 20,4 C 44 % 46 % 45 % 1021,0 hPa 0,0 l/m 5,1 km/h (1 Bft) N-NO 22 8,7 C 20,7 C 19,8 km/h (3 Bft)
03.06.2023 15:58 23,6 C 20,8 C 21,6 C 20,4 C 44 % 46 % 46 % 1021,0 hPa 0,0 l/m 4,5 km/h (1 Bft) W 270 8,8 C 20,8 C 12,6 km/h (3 Bft)
03.06.2023 15:56 23,6 C 20,5 C 21,6 C 20,4 C 44 % 45 % 45 % 1021,0 hPa 0,0 l/m 4,7 km/h (1 Bft) O 90 8,2 C 20,5 C 12,6 km/h (3 Bft)
03.06.2023 15:54 23,6 C 20,6 C 21,6 C 20,5 C 44 % 45 % 45 % 1021,0 hPa 0,0 l/m 4,2 km/h (1 Bft) W-SW 247 8,2 C 20,6 C 13,8 km/h (3 Bft)
03.06.2023 15:52 23,6 C 20,6 C 21,1 C 20,8 C 44 % 45 % 45 % 1021,0 hPa 0,0 l/m 4,0 km/h (1 Bft) N-NO 22 8,2 C 20,6 C 13,8 km/h (3 Bft)
03.06.2023 15:50 23,6 C 20,5 C 20,7 C 20,8 C 44 % 46 % 46 % 1021,0 hPa 0,0 l/m 3,5 km/h (1 Bft) N 360 8,5 C 20,5 C 8,9 km/h (2 Bft)
03.06.2023 15:48 23,6 C 20,6 C 20,4 C 20,7 C 44 % 47 % 45 % 1021,1 hPa 0,0 l/m 3,9 km/h (1 Bft) NW 315 8,9 C 20,6 C 8,9 km/h (2 Bft)
03.06.2023 15:46 23,6 C 20,3 C 20,3 C 20,5 C 44 % 47 % 46 % 1021,1 hPa 0,0 l/m 4,0 km/h (1 Bft) W-NW 292 8,6 C 20,3 C 7,7 km/h (2 Bft)
03.06.2023 15:44 23,6 C 20,2 C 20,4 C 20,5 C 44 % 46 % 46 % 1021,1 hPa 0,0 l/m 4,3 km/h (1 Bft) O 90 8,2 C 20,2 C 8,4 km/h (2 Bft)
03.06.2023 15:42 23,6 C 20,4 C 20,8 C 20,4 C 44 % 45 % 46 % 1021,1 hPa 0,0 l/m 5,1 km/h (1 Bft) SO 135 8,1 C 20,4 C 13,0 km/h (3 Bft)
03.06.2023 15:40 23,6 C 20,5 C 21,1 C 20,2 C 44 % 45 % 46 % 1021,1 hPa 0,0 l/m 5,5 km/h (1 Bft) O 90 8,2 C 20,5 C 13,0 km/h (3 Bft)
03.06.2023 15:38 23,6 C 20,8 C 21,4 C 20,3 C 44 % 47 % 45 % 1021,1 hPa 0,0 l/m 5,3 km/h (1 Bft) S-SO 157 9,1 C 20,8 C 14,2 km/h (3 Bft)
03.06.2023 15:36 23,6 C 20,6 C 21,3 C 20,3 C 44 % 46 % 46 % 1021,1 hPa 0,0 l/m 5,5 km/h (1 Bft) O-SO 112 8,6 C 20,6 C 14,2 km/h (3 Bft)
03.06.2023 15:34 23,6 C 20,8 C 21,7 C 20,3 C 44 % 46 % 46 % 1021,1 hPa 0,0 l/m 5,1 km/h (1 Bft) NO 45 8,8 C 20,8 C 12,6 km/h (3 Bft)
03.06.2023 15:32 23,6 C 20,6 C 21,7 C 20,3 C 44 % 45 % 45 % 1021,1 hPa 0,0 l/m 5,3 km/h (1 Bft) O-NO 67 8,2 C 20,6 C 19,3 km/h (3 Bft)
03.06.2023 15:30 23,6 C 20,8 C 21,5 C 20,5 C 44 % 46 % 45 % 1021,1 hPa 0,0 l/m 5,0 km/h (1 Bft) N 360 8,8 C 20,8 C 19,3 km/h (3 Bft)
03.06.2023 15:28 23,6 C 20,7 C 21,4 C 20,7 C 44 % 47 % 46 % 1021,1 hPa 0,0 l/m 4,3 km/h (1 Bft) N 360 9,0 C 20,7 C 15,9 km/h (3 Bft)
03.06.2023 15:26 23,6 C 20,8 C 21,5 C 20,7 C 44 % 47 % 46 % 1021,1 hPa 0,0 l/m 5,1 km/h (1 Bft) O-NO 67 9,1 C 20,8 C 15,9 km/h (3 Bft)
03.06.2023 15:24 23,6 C 20,7 C 21,5 C 20,7 C 44 % 46 % 46 % 1021,1 hPa 0,0 l/m 5,3 km/h (1 Bft) S 180 8,7 C 20,7 C 12,6 km/h (3 Bft)
03.06.2023 15:22 23,6 C 20,6 C 21,2 C 20,7 C 44 % 47 % 46 % 1021,1 hPa 0,0 l/m 5,0 km/h (1 Bft) N 360 8,9 C 20,6 C 12,6 km/h (3 Bft)
03.06.2023 15:20 23,6 C 20,3 C 21,0 C 20,5 C 44 % 46 % 46 % 1021,1 hPa 0,0 l/m 5,0 km/h (1 Bft) W-SW 247 8,3 C 20,3 C 8,0 km/h (2 Bft)
03.06.2023 15:18 23,6 C 20,1 C 21,0 C 20,5 C 44 % 45 % 46 % 1021,1 hPa 0,0 l/m 5,3 km/h (1 Bft) NW 315 7,8 C 20,1 C 18,3 km/h (3 Bft)
03.06.2023 15:16 23,6 C 20,5 C 22,0 C 20,5 C 44 % 46 % 47 % 1021,1 hPa 0,0 l/m 5,3 km/h (1 Bft) S-SO 157 8,5 C 20,5 C 18,3 km/h (3 Bft)
03.06.2023 15:14 23,6 C 20,6 C 22,5 C 20,5 C 44 % 48 % 47 % 1021,1 hPa 0,0 l/m 4,7 km/h (1 Bft) W 270 9,2 C 20,6 C 11,1 km/h (2 Bft)
03.06.2023 15:12 23,6 C 20,7 C 21,8 C 20,4 C 44 % 46 % 46 % 1021,1 hPa 0,0 l/m 4,8 km/h (1 Bft) NO 45 8,7 C 20,7 C 10,9 km/h (2 Bft)
03.06.2023 15:10 23,6 C 20,9 C 22,4 C 20,5 C 44 % 46 % 46 % 1021,1 hPa 0,0 l/m 5,1 km/h (1 Bft) SO 135 8,8 C 20,9 C 10,9 km/h (2 Bft)
03.06.2023 15:08 23,6 C 20,8 C 22,6 C 20,6 C 44 % 50 % 46 % 1021,6 hPa 0,0 l/m 5,0 km/h (1 Bft) N-NW 337 10,0 C 20,8 C 14,5 km/h (3 Bft)
03.06.2023 15:06 23,6 C 20,6 C 22,0 C 20,7 C 44 % 47 % 46 % 1021,6 hPa 0,0 l/m 5,3 km/h (1 Bft) N-NW 337 8,9 C 20,6 C 14,5 km/h (3 Bft)
03.06.2023 15:04 23,6 C 20,2 C 21,7 C 20,7 C 44 % 47 % 47 % 1021,6 hPa 0,0 l/m 6,0 km/h (2 Bft) N 360 8,5 C 20,2 C 9,9 km/h (2 Bft)
03.06.2023 15:02 23,6 C 20,2 C 21,9 C 20,5 C 44 % 47 % 47 % 1021,6 hPa 0,0 l/m 6,1 km/h (2 Bft) S-SW 202 8,5 C 20,2 C 11,8 km/h (2 Bft)
03.06.2023 15:00 23,7 C 20,4 C 22,3 C 20,3 C 44 % 47 % 47 % 1021,6 hPa 0,0 l/m 5,3 km/h (1 Bft) S-SW 202 8,7 C 20,4 C 11,8 km/h (2 Bft)
03.06.2023 14:58 23,7 C 20,6 C 23,0 C 20,1 C 44 % 46 % 46 % 1021,6 hPa 0,0 l/m 4,8 km/h (1 Bft) W 270 8,6 C 20,6 C 8,9 km/h (2 Bft)
03.06.2023 14:56 23,6 C 20,6 C 23,6 C 20,1 C 44 % 46 % 47 % 1021,6 hPa 0,0 l/m 4,5 km/h (1 Bft) O-SO 112 8,6 C 20,6 C 17,1 km/h (3 Bft)
03.06.2023 14:54 23,6 C 20,4 C 23,3 C 20,1 C 44 % 46 % 46 % 1021,6 hPa 0,0 l/m 4,2 km/h (1 Bft) N-NW 337 8,4 C 20,4 C 17,1 km/h (3 Bft)
03.06.2023 14:52 23,6 C 20,5 C 22,9 C 20,1 C 44 % 48 % 46 % 1021,6 hPa 0,0 l/m 3,7 km/h (1 Bft) NW 315 9,1 C 20,5 C 7,2 km/h (2 Bft)
03.06.2023 14:50 23,6 C 20,5 C 22,3 C 20,1 C 44 % 46 % 47 % 1021,6 hPa 0,0 l/m 3,7 km/h (1 Bft) O-SO 112 8,5 C 20,5 C 13,3 km/h (3 Bft)
03.06.2023 14:48 23,6 C 20,6 C 21,6 C 20,1 C 44 % 47 % 46 % 1021,4 hPa 0,0 l/m 4,8 km/h (1 Bft) W 270 8,9 C 20,6 C 13,3 km/h (3 Bft)
03.06.2023 14:46 23,6 C 20,4 C 21,9 C 20,1 C 44 % 45 % 46 % 1021,4 hPa 0,0 l/m 5,1 km/h (1 Bft) O 90 8,1 C 20,4 C 19,1 km/h (3 Bft)
03.06.2023 14:44 23,6 C 20,4 C 22,2 C 20,2 C 44 % 45 % 47 % 1021,4 hPa 0,0 l/m 6,1 km/h (2 Bft) O-NO 67 8,1 C 20,4 C 19,1 km/h (3 Bft)
03.06.2023 14:42 23,6 C 20,3 C 22,5 C 20,2 C 44 % 46 % 47 % 1021,4 hPa 0,0 l/m 5,1 km/h (1 Bft) N-NO 22 8,3 C 20,3 C 10,6 km/h (2 Bft)
03.06.2023 14:40 23,6 C 20,2 C 22,8 C 20,2 C 44 % 46 % 47 % 1021,4 hPa 0,0 l/m 5,1 km/h (1 Bft) NW 315 8,2 C 20,2 C 18,6 km/h (3 Bft)
03.06.2023 14:38 23,6 C 20,1 C 23,2 C 20,2 C 44 % 46 % 47 % 1021,4 hPa 0,0 l/m 5,0 km/h (1 Bft) O-NO 67 8,1 C 20,1 C 18,6 km/h (3 Bft)
03.06.2023 14:36 23,6 C 20,3 C 23,7 C 20,2 C 44 % 47 % 47 % 1021,4 hPa 0,0 l/m 4,7 km/h (1 Bft) O-NO 67 8,6 C 20,3 C 15,9 km/h (3 Bft)
03.06.2023 14:34 23,6 C 20,2 C 23,4 C 20,1 C 44 % 48 % 47 % 1021,4 hPa 0,0 l/m 4,2 km/h (1 Bft) N 360 8,8 C 20,2 C 10,9 km/h (2 Bft)
03.06.2023 14:32 23,6 C 20,1 C 23,3 C 20,0 C 44 % 46 % 47 % 1021,4 hPa 0,0 l/m 4,0 km/h (1 Bft) W-NW 292 8,1 C 20,1 C 7,5 km/h (2 Bft)
03.06.2023 14:30 23,6 C 20,2 C 23,5 C 20,0 C 44 % 47 % 48 % 1021,4 hPa 0,0 l/m 4,7 km/h (1 Bft) SW 225 8,5 C 20,2 C 7,5 km/h (2 Bft)
03.06.2023 14:28 23,6 C 20,2 C 22,7 C 20,0 C 44 % 49 % 48 % 1021,8 hPa 0,0 l/m 5,1 km/h (1 Bft) S 180 9,1 C 20,2 C 6,3 km/h (2 Bft)
03.06.2023 14:26 23,6 C 19,9 C 22,6 C 19,9 C 44 % 46 % 48 % 1021,8 hPa 0,0 l/m 5,6 km/h (1 Bft) NO 45 7,9 C 19,9 C 6,5 km/h (2 Bft)
03.06.2023 14:24 23,6 C 20,0 C 23,1 C 19,7 C 44 % 45 % 47 % 1021,8 hPa 0,0 l/m 6,1 km/h (2 Bft) W-NW 292 7,7 C 20,0 C 8,7 km/h (2 Bft)
03.06.2023 14:22 23,6 C 20,1 C 23,3 C 19,5 C 44 % 48 % 47 % 1021,8 hPa 0,0 l/m 7,6 km/h (2 Bft) N-NW 337 8,7 C 19,6 C 8,7 km/h (2 Bft)
03.06.2023 14:20 23,6 C 20,0 C 23,3 C 19,4 C 44 % 45 % 46 % 1021,8 hPa 0,0 l/m 7,6 km/h (2 Bft) O-NO 67 7,7 C 19,5 C 15,9 km/h (3 Bft)
03.06.2023 14:18 23,6 C 20,4 C 24,2 C 19,4 C 44 % 46 % 46 % 1021,8 hPa 0,0 l/m 6,9 km/h (2 Bft) O 90 8,4 C 20,2 C 15,9 km/h (3 Bft)
03.06.2023 14:16 23,6 C 20,8 C 24,5 C 19,7 C 44 % 46 % 46 % 1021,8 hPa 0,0 l/m 6,4 km/h (2 Bft) NO 45 8,8 C 20,8 C 17,9 km/h (3 Bft)
03.06.2023 14:14 23,6 C 20,8 C 24,4 C 19,9 C 44 % 47 % 46 % 1021,8 hPa 0,0 l/m 5,8 km/h (2 Bft) NW 315 9,1 C 20,8 C 17,9 km/h (3 Bft)
03.06.2023 14:12 23,6 C 20,7 C 24,3 C 20,1 C 44 % 49 % 47 % 1021,8 hPa 0,0 l/m 5,0 km/h (1 Bft) NO 45 9,6 C 20,7 C 18,8 km/h (3 Bft)
03.06.2023 14:10 23,6 C 20,2 C 24,5 C 20,0 C 44 % 48 % 47 % 1021,8 hPa 0,0 l/m 4,2 km/h (1 Bft) N-NO 22 8,8 C 20,2 C 18,8 km/h (3 Bft)
03.06.2023 14:08 23,6 C 20,0 C 24,7 C 19,8 C 44 % 48 % 47 % 1021,8 hPa 0,0 l/m 3,7 km/h (1 Bft) S-SO 157 8,7 C 20,0 C 15,0 km/h (3 Bft)
03.06.2023 14:06 23,6 C 20,1 C 26,0 C 19,7 C 44 % 47 % 47 % 1021,8 hPa 0,0 l/m 4,3 km/h (1 Bft) S-SO 157 8,4 C 20,1 C 15,0 km/h (3 Bft)
03.06.2023 14:04 23,6 C 20,8 C 26,1 C 19,6 C 44 % 48 % 46 % 1021,8 hPa 0,0 l/m 4,0 km/h (1 Bft) S 180 9,4 C 20,8 C 7,7 km/h (2 Bft)
03.06.2023 14:02 23,6 C 20,6 C 26,2 C 19,7 C 44 % 47 % 46 % 1021,8 hPa 0,0 l/m 4,2 km/h (1 Bft) O-NO 67 8,9 C 20,6 C 12,3 km/h (3 Bft)
03.06.2023 14:00 23,6 C 20,0 C 25,9 C 20,0 C 44 % 46 % 47 % 1021,8 hPa 0,0 l/m 4,2 km/h (1 Bft) W 270 8,0 C 20,0 C 2,7 km/h (1 Bft)
03.06.2023 13:58 23,6 C 20,0 C 25,7 C 20,0 C 44 % 45 % 47 % 1021,8 hPa 0,0 l/m 4,8 km/h (1 Bft) NO 45 7,7 C 20,0 C 14,0 km/h (3 Bft)
03.06.2023 13:56 23,6 C 20,1 C 26,4 C 19,8 C 45 % 48 % 48 % 1021,8 hPa 0,0 l/m 5,5 km/h (1 Bft) NO 45 8,7 C 20,1 C 14,0 km/h (3 Bft)
03.06.2023 13:54 23,6 C 19,8 C 27,5 C 19,6 C 45 % 47 % 48 % 1021,8 hPa 0,0 l/m 5,6 km/h (1 Bft) S 180 8,2 C 19,8 C 11,3 km/h (2 Bft)
03.06.2023 13:52 23,6 C 19,5 C 29,1 C 19,5 C 45 % 48 % 47 % 1021,8 hPa 0,0 l/m 5,3 km/h (1 Bft) SW 225 8,2 C 19,5 C 12,1 km/h (2 Bft)
03.06.2023 13:50 23,6 C 19,5 C 28,8 C 19,6 C 45 % 45 % 47 % 1021,8 hPa 0,0 l/m 5,5 km/h (1 Bft) S-SO 157 7,2 C 19,5 C 12,1 km/h (2 Bft)
03.06.2023 13:48 23,6 C 19,7 C 30,2 C 19,5 C 44 % 45 % 48 % 1021,8 hPa 0,0 l/m 5,5 km/h (1 Bft) S-SW 202 7,4 C 19,7 C 6,3 km/h (2 Bft)
03.06.2023 13:46 23,6 C 19,9 C 31,8 C 19,3 C 45 % 48 % 48 % 1021,8 hPa 0,0 l/m 4,7 km/h (1 Bft) S 180 8,6 C 19,9 C 4,8 km/h (1 Bft)
03.06.2023 13:44 23,6 C 19,8 C 32,2 C 19,3 C 45 % 46 % 47 % 1021,8 hPa 0,0 l/m 4,8 km/h (1 Bft) O-SO 112 7,8 C 19,8 C 5,1 km/h (1 Bft)
03.06.2023 13:42 23,6 C 20,0 C 31,9 C 19,3 C 45 % 46 % 48 % 1021,8 hPa 0,0 l/m 5,0 km/h (1 Bft) O-NO 67 8,0 C 20,0 C 9,4 km/h (2 Bft)
03.06.2023 13:40 23,6 C 19,7 C 30,4 C 19,3 C 45 % 47 % 48 % 1021,8 hPa 0,0 l/m 5,0 km/h (1 Bft) N 360 8,1 C 19,7 C 9,9 km/h (2 Bft)
03.06.2023 13:38 23,6 C 19,8 C 28,1 C 19,4 C 45 % 47 % 48 % 1021,8 hPa 0,0 l/m 5,0 km/h (1 Bft) N 360 8,2 C 19,8 C 10,1 km/h (2 Bft)
03.06.2023 13:36 23,7 C 19,8 C 29,1 C 19,2 C 45 % 45 % 49 % 1021,8 hPa 0,0 l/m 4,7 km/h (1 Bft) S 180 7,5 C 19,8 C 10,6 km/h (2 Bft)
03.06.2023 13:34 23,7 C 20,2 C 31,6 C 19,0 C 45 % 46 % 49 % 1021,8 hPa 0,0 l/m 5,0 km/h (1 Bft) S-SW 202 8,2 C 20,2 C 10,6 km/h (2 Bft)
03.06.2023 13:32 23,6 C 20,2 C 34,4 C 18,8 C 45 % 50 % 48 % 1021,8 hPa 0,0 l/m 5,3 km/h (1 Bft) O-NO 67 9,4 C 20,2 C 11,1 km/h (2 Bft)
03.06.2023 13:30 23,7 C 20,1 C 35,6 C 18,8 C 45 % 48 % 48 % 1021,8 hPa 0,0 l/m 5,6 km/h (1 Bft) N 360 8,7 C 20,1 C 11,1 km/h (2 Bft)
03.06.2023 13:28 23,6 C 19,8 C 35,3 C 18,8 C 45 % 47 % 49 % 1022,1 hPa 0,0 l/m 5,3 km/h (1 Bft) O-NO 67 8,2 C 19,8 C 8,7 km/h (2 Bft)
03.06.2023 13:26 23,7 C 20,1 C 35,6 C 18,6 C 45 % 47 % 48 % 1022,1 hPa 0,0 l/m 6,8 km/h (2 Bft) W-SW 247 8,4 C 19,9 C 15,9 km/h (3 Bft)
03.06.2023 13:24 23,7 C 19,9 C 34,8 C 18,6 C 45 % 46 % 48 % 1022,1 hPa 0,0 l/m 7,2 km/h (2 Bft) N 360 7,9 C 19,6 C 16,7 km/h (3 Bft)
03.06.2023 13:22 23,7 C 19,5 C 36,5 C 18,5 C 45 % 47 % 48 % 1022,1 hPa 0,0 l/m 6,9 km/h (2 Bft) NO 45 7,9 C 19,3 C 16,7 km/h (3 Bft)
03.06.2023 13:20 23,7 C 19,5 C 36,0 C 18,6 C 45 % 46 % 48 % 1022,1 hPa 0,0 l/m 6,3 km/h (2 Bft) N 360 7,6 C 19,5 C 7,2 km/h (2 Bft)
03.06.2023 13:18 23,7 C 20,0 C 34,7 C 18,7 C 45 % 45 % 48 % 1022,1 hPa 0,0 l/m 7,1 km/h (2 Bft) NO 45 7,7 C 19,7 C 16,7 km/h (3 Bft)
03.06.2023 13:16 23,7 C 20,0 C 35,1 C 18,6 C 45 % 47 % 48 % 1022,1 hPa 0,0 l/m 6,8 km/h (2 Bft) NO 45 8,3 C 19,8 C 22,4 km/h (4 Bft)
03.06.2023 13:14 23,7 C 19,8 C 36,0 C 18,4 C 45 % 48 % 48 % 1022,1 hPa 0,0 l/m 7,2 km/h (2 Bft) O-NO 67 8,5 C 19,5 C 22,4 km/h (4 Bft)
03.06.2023 13:12 23,7 C 19,7 C 36,5 C 18,4 C 45 % 45 % 47 % 1022,1 hPa 0,0 l/m 7,1 km/h (2 Bft) N-NO 22 7,4 C 19,4 C 14,2 km/h (3 Bft)
03.06.2023 13:10 23,7 C 19,8 C 37,3 C 18,7 C 45 % 47 % 48 % 1022,1 hPa 0,0 l/m 7,6 km/h (2 Bft) N 360 8,2 C 19,3 C 14,2 km/h (3 Bft)
03.06.2023 13:08 23,7 C 19,6 C 37,2 C 18,7 C 45 % 48 % 48 % 1022,0 hPa 0,0 l/m 7,1 km/h (2 Bft) W 270 8,3 C 19,3 C 14,0 km/h (3 Bft)
03.06.2023 13:06 23,7 C 19,6 C 36,5 C 18,9 C 45 % 46 % 48 % 1022,0 hPa 0,0 l/m 6,9 km/h (2 Bft) N-NW 337 7,7 C 19,4 C 18,3 km/h (3 Bft)
03.06.2023 13:04 23,7 C 19,6 C 36,6 C 18,9 C 45 % 46 % 48 % 1022,0 hPa 0,0 l/m 6,3 km/h (2 Bft) NO 45 7,7 C 19,6 C 18,3 km/h (3 Bft)
03.06.2023 13:02 23,7 C 19,3 C 37,0 C 18,9 C 45 % 47 % 48 % 1022,0 hPa 0,0 l/m 5,5 km/h (1 Bft) N 360 7,7 C 19,3 C 17,1 km/h (3 Bft)
03.06.2023 13:00 23,7 C 19,2 C 36,7 C 18,8 C 45 % 47 % 48 % 1022,0 hPa 0,0 l/m 5,5 km/h (1 Bft) O-SO 112 7,6 C 19,2 C 17,1 km/h (3 Bft)
03.06.2023 12:58 23,7 C 19,1 C 38,0 C 18,8 C 45 % 47 % 48 % 1022,0 hPa 0,0 l/m 4,5 km/h (1 Bft) W 270 7,5 C 19,1 C 13,0 km/h (3 Bft)
03.06.2023 12:56 23,7 C 19,1 C 38,4 C 18,8 C 45 % 46 % 48 % 1022,0 hPa 0,0 l/m 4,2 km/h (1 Bft) S-SW 202 7,2 C 19,1 C 10,4 km/h (2 Bft)
03.06.2023 12:54 23,7 C 19,3 C 39,2 C 18,8 C 45 % 45 % 49 % 1022,0 hPa 0,0 l/m 4,0 km/h (1 Bft) S-SO 157 7,1 C 19,3 C 10,1 km/h (2 Bft)
03.06.2023 12:52 23,7 C 19,4 C 38,9 C 18,8 C 45 % 46 % 49 % 1022,0 hPa 0,0 l/m 4,0 km/h (1 Bft) SO 135 7,5 C 19,4 C 11,1 km/h (2 Bft)
03.06.2023 12:50 23,7 C 19,4 C 39,4 C 18,7 C 45 % 48 % 49 % 1022,0 hPa 0,0 l/m 3,5 km/h (1 Bft) S 180 8,1 C 19,4 C 11,1 km/h (2 Bft)
03.06.2023 12:48 23,7 C 19,3 C 38,9 C 18,6 C 45 % 46 % 48 % 1022,1 hPa 0,0 l/m 3,2 km/h (1 Bft) W-SW 247 7,4 C 19,3 C 8,7 km/h (2 Bft)
03.06.2023 12:46 23,7 C 19,3 C 40,3 C 18,7 C 45 % 47 % 48 % 1022,1 hPa 0,0 l/m 3,2 km/h (1 Bft) NO 45 7,7 C 19,3 C 8,7 km/h (2 Bft)
03.06.2023 12:44 23,7 C 19,3 C 39,8 C 18,9 C 45 % 47 % 49 % 1022,1 hPa 0,0 l/m 3,5 km/h (1 Bft) S-SO 157 7,7 C 19,3 C 8,0 km/h (2 Bft)
03.06.2023 12:42 23,7 C 19,1 C 43,5 C 18,9 C 45 % 47 % 49 % 1022,1 hPa 0,0 l/m 4,0 km/h (1 Bft) N 360 7,5 C 19,1 C 8,0 km/h (2 Bft)
03.06.2023 12:40 23,7 C 18,8 C 41,6 C 18,8 C 45 % 46 % 49 % 1022,1 hPa 0,0 l/m 3,7 km/h (1 Bft) SW 225 6,9 C 18,8 C 12,3 km/h (3 Bft)
03.06.2023 12:38 23,7 C 18,9 C 40,2 C 18,7 C 45 % 47 % 50 % 1022,1 hPa 0,0 l/m 4,0 km/h (1 Bft) N 360 7,3 C 18,9 C 12,3 km/h (3 Bft)
03.06.2023 12:36 23,7 C 19,4 C 40,1 C 18,5 C 45 % 47 % 49 % 1022,1 hPa 0,0 l/m 4,0 km/h (1 Bft) W-SW 247 7,8 C 19,4 C 13,0 km/h (3 Bft)
03.06.2023 12:34 23,7 C 19,4 C 39,1 C 18,3 C 45 % 48 % 49 % 1022,1 hPa 0,0 l/m 4,7 km/h (1 Bft) O-NO 67 8,1 C 19,4 C 13,0 km/h (3 Bft)
03.06.2023 12:32 23,7 C 18,9 C 38,3 C 18,3 C 45 % 48 % 49 % 1022,1 hPa 0,0 l/m 5,1 km/h (1 Bft) SW 225 7,6 C 18,9 C 7,2 km/h (2 Bft)
03.06.2023 12:30 23,7 C 18,7 C 37,8 C 18,3 C 45 % 48 % 49 % 1022,1 hPa 0,0 l/m 5,8 km/h (2 Bft) N-NW 337 7,5 C 18,7 C 7,7 km/h (2 Bft)
03.06.2023 12:28 23,7 C 18,5 C 37,5 C 18,0 C 45 % 47 % 49 % 1022,3 hPa 0,0 l/m 6,3 km/h (2 Bft) W 270 7,0 C 18,5 C 10,4 km/h (2 Bft)
03.06.2023 12:26 23,7 C 18,8 C 38,2 C 17,8 C 45 % 47 % 48 % 1022,3 hPa 0,0 l/m 7,1 km/h (2 Bft) SW 225 7,2 C 18,5 C 13,3 km/h (3 Bft)
03.06.2023 12:24 23,7 C 19,1 C 38,4 C 17,9 C 45 % 47 % 48 % 1022,3 hPa 0,0 l/m 6,8 km/h (2 Bft) W-NW 292 7,5 C 18,9 C 15,9 km/h (3 Bft)
03.06.2023 12:22 23,7 C 18,9 C 38,5 C 18,0 C 45 % 47 % 48 % 1022,3 hPa 0,0 l/m 6,3 km/h (2 Bft) O-NO 67 7,3 C 18,9 C 15,9 km/h (3 Bft)
03.06.2023 12:20 23,7 C 18,4 C 38,5 C 17,9 C 45 % 47 % 48 % 1022,3 hPa 0,0 l/m 5,6 km/h (1 Bft) O-NO 67 6,9 C 18,4 C 16,7 km/h (3 Bft)
03.06.2023 12:18 23,7 C 18,4 C 38,9 C 18,0 C 45 % 46 % 48 % 1022,3 hPa 0,0 l/m 5,6 km/h (1 Bft) SO 135 6,6 C 18,4 C 16,7 km/h (3 Bft)
03.06.2023 12:16 23,7 C 18,5 C 40,5 C 18,0 C 45 % 48 % 48 % 1022,3 hPa 0,0 l/m 5,0 km/h (1 Bft) S 180 7,3 C 18,5 C 15,7 km/h (3 Bft)
03.06.2023 12:14 23,7 C 18,3 C 40,8 C 18,1 C 45 % 48 % 48 % 1022,3 hPa 0,0 l/m 4,5 km/h (1 Bft) O-NO 67 7,1 C 18,3 C 13,8 km/h (3 Bft)
03.06.2023 12:12 23,7 C 18,4 C 39,7 C 18,0 C 45 % 49 % 49 % 1022,3 hPa 0,0 l/m 4,3 km/h (1 Bft) O-NO 67 7,5 C 18,4 C 7,7 km/h (2 Bft)
03.06.2023 12:10 23,7 C 18,0 C 38,6 C 18,0 C 45 % 48 % 49 % 1022,3 hPa 0,0 l/m 4,5 km/h (1 Bft) W-NW 292 6,8 C 18,0 C 6,8 km/h (2 Bft)
03.06.2023 12:08 23,7 C 17,9 C 38,2 C 18,0 C 45 % 48 % 50 % 1022,1 hPa 0,0 l/m 4,8 km/h (1 Bft) W-SW 247 6,7 C 17,9 C 5,8 km/h (2 Bft)
03.06.2023 12:06 23,7 C 17,8 C 39,5 C 17,9 C 45 % 47 % 49 % 1022,1 hPa 0,0 l/m 5,3 km/h (1 Bft) W-NW 292 6,3 C 17,8 C 10,4 km/h (2 Bft)
03.06.2023 12:04 23,7 C 18,0 C 39,0 C 17,9 C 45 % 48 % 50 % 1022,1 hPa 0,0 l/m 5,3 km/h (1 Bft) S-SO 157 6,8 C 18,0 C 10,4 km/h (2 Bft)
03.06.2023 12:02 23,7 C 18,1 C 38,1 C 17,8 C 45 % 48 % 50 % 1022,1 hPa 0,0 l/m 5,5 km/h (1 Bft) W 270 6,9 C 18,1 C 9,7 km/h (2 Bft)
03.06.2023 12:00 23,7 C 18,4 C 38,9 C 17,8 C 45 % 48 % 50 % 1022,1 hPa 0,0 l/m 4,8 km/h (1 Bft) S-SW 202 7,2 C 18,4 C 8,0 km/h (2 Bft)
03.06.2023 11:58 23,7 C 18,5 C 40,3 C 17,9 C 45 % 48 % 50 % 1022,1 hPa 0,0 l/m 4,3 km/h (1 Bft) N-NW 337 7,3 C 18,5 C 16,2 km/h (3 Bft)
03.06.2023 11:56 23,7 C 18,2 C 39,8 C 17,9 C 45 % 47 % 50 % 1022,1 hPa 0,0 l/m 3,7 km/h (1 Bft) O-NO 67 6,7 C 18,2 C 16,2 km/h (3 Bft)
03.06.2023 11:54 23,7 C 18,1 C 39,0 C 18,0 C 45 % 48 % 50 % 1022,1 hPa 0,0 l/m 3,4 km/h (1 Bft) W 270 6,9 C 18,1 C 8,4 km/h (2 Bft)
03.06.2023 11:52 23,7 C 18,1 C 37,5 C 18,0 C 45 % 46 % 50 % 1022,1 hPa 0,0 l/m 3,7 km/h (1 Bft) S 180 6,3 C 18,1 C 5,1 km/h (1 Bft)
03.06.2023 11:50 23,7 C 18,3 C 37,5 C 17,9 C 45 % 48 % 51 % 1022,1 hPa 0,0 l/m 3,5 km/h (1 Bft) N 360 7,1 C 18,3 C 3,1 km/h (1 Bft)
03.06.2023 11:48 23,7 C 18,5 C 38,9 C 17,9 C 45 % 49 % 51 % 1022,1 hPa 0,0 l/m 4,0 km/h (1 Bft) NW 315 7,6 C 18,5 C 5,8 km/h (2 Bft)
03.06.2023 11:46 23,7 C 18,1 C 39,1 C 17,9 C 45 % 50 % 51 % 1022,1 hPa 0,0 l/m 4,2 km/h (1 Bft) O-NO 67 7,5 C 18,1 C 5,8 km/h (2 Bft)
03.06.2023 11:44 23,7 C 17,9 C 38,2 C 17,8 C 45 % 48 % 51 % 1022,1 hPa 0,0 l/m 4,3 km/h (1 Bft) N-NW 337 6,7 C 17,9 C 11,3 km/h (2 Bft)
03.06.2023 11:42 23,7 C 17,9 C 38,2 C 17,7 C 45 % 50 % 51 % 1022,1 hPa 0,0 l/m 4,2 km/h (1 Bft) N 360 7,3 C 17,9 C 11,3 km/h (2 Bft)
03.06.2023 11:40 23,7 C 18,1 C 38,0 C 17,8 C 45 % 48 % 50 % 1022,1 hPa 0,0 l/m 4,5 km/h (1 Bft) SO 135 6,9 C 18,1 C 15,0 km/h (3 Bft)
03.06.2023 11:38 23,7 C 18,2 C 38,3 C 17,8 C 45 % 49 % 50 % 1022,1 hPa 0,0 l/m 5,1 km/h (1 Bft) NO 45 7,3 C 18,2 C 15,0 km/h (3 Bft)
03.06.2023 11:36 23,7 C 18,0 C 37,3 C 17,8 C 45 % 49 % 52 % 1022,1 hPa 0,0 l/m 5,5 km/h (1 Bft) N-NW 337 7,1 C 18,0 C 7,5 km/h (2 Bft)
03.06.2023 11:34 23,6 C 17,8 C 36,5 C 17,8 C 45 % 51 % 52 % 1022,1 hPa 0,0 l/m 6,0 km/h (2 Bft) N 360 7,5 C 17,8 C 8,2 km/h (2 Bft)
03.06.2023 11:32 23,7 C 17,1 C 34,5 C 17,7 C 45 % 50 % 51 % 1022,1 hPa 0,0 l/m 6,3 km/h (2 Bft) N 360 6,6 C 17,1 C 13,3 km/h (3 Bft)
03.06.2023 11:30 23,6 C 17,1 C 34,5 C 17,6 C 45 % 48 % 52 % 1022,1 hPa 0,0 l/m 7,4 km/h (2 Bft) SW 225 6,0 C 16,6 C 20,3 km/h (4 Bft)
03.06.2023 11:28 23,7 C 17,1 C 33,9 C 17,6 C 45 % 49 % 51 % 1022,1 hPa 0,0 l/m 7,9 km/h (2 Bft) S-SW 202 6,3 C 16,4 C 20,3 km/h (4 Bft)
03.06.2023 11:26 23,6 C 17,2 C 35,1 C 17,6 C 45 % 48 % 51 % 1022,1 hPa 0,0 l/m 7,9 km/h (2 Bft) SW 225 6,1 C 16,5 C 13,3 km/h (3 Bft)
03.06.2023 11:24 23,6 C 17,1 C 34,9 C 17,6 C 45 % 48 % 52 % 1022,1 hPa 0,0 l/m 7,7 km/h (2 Bft) SW 225 6,0 C 16,5 C 13,8 km/h (3 Bft)
03.06.2023 11:22 23,6 C 17,1 C 33,5 C 17,5 C 45 % 48 % 52 % 1022,1 hPa 0,0 l/m 7,6 km/h (2 Bft) SW 225 6,0 C 16,5 C 17,9 km/h (3 Bft)
03.06.2023 11:20 23,6 C 17,1 C 32,1 C 17,4 C 45 % 48 % 52 % 1022,1 hPa 0,0 l/m 6,4 km/h (2 Bft) S-SW 202 6,0 C 17,1 C 21,0 km/h (4 Bft)
03.06.2023 11:18 23,6 C 17,2 C 33,0 C 17,4 C 45 % 49 % 52 % 1022,1 hPa 0,0 l/m 6,0 km/h (2 Bft) S-SO 157 6,4 C 17,2 C 21,0 km/h (4 Bft)
03.06.2023 11:16 23,6 C 17,1 C 34,4 C 17,3 C 45 % 49 % 52 % 1022,1 hPa 0,0 l/m 4,7 km/h (1 Bft) S-SW 202 6,3 C 17,1 C 12,8 km/h (3 Bft)
03.06.2023 11:14 23,6 C 17,0 C 34,8 C 17,3 C 45 % 49 % 52 % 1022,1 hPa 0,0 l/m 4,3 km/h (1 Bft) W-SW 247 6,2 C 17,0 C 10,6 km/h (2 Bft)
03.06.2023 11:12 23,6 C 17,3 C 36,4 C 17,2 C 45 % 50 % 51 % 1022,1 hPa 0,0 l/m 4,5 km/h (1 Bft) W 270 6,8 C 17,3 C 10,9 km/h (2 Bft)
03.06.2023 11:10 23,6 C 17,2 C 36,1 C 17,3 C 45 % 48 % 52 % 1022,1 hPa 0,0 l/m 5,1 km/h (1 Bft) O-SO 112 6,1 C 17,2 C 16,9 km/h (3 Bft)
03.06.2023 11:08 23,6 C 17,0 C 35,9 C 17,3 C 45 % 49 % 52 % 1022,2 hPa 0,0 l/m 5,3 km/h (1 Bft) N 360 6,2 C 17,0 C 16,9 km/h (3 Bft)
03.06.2023 11:06 23,6 C 17,0 C 34,9 C 17,3 C 45 % 49 % 53 % 1022,2 hPa 0,0 l/m 5,3 km/h (1 Bft) O-NO 67 6,2 C 17,0 C 3,6 km/h (1 Bft)
03.06.2023 11:04 23,6 C 17,2 C 33,7 C 17,2 C 45 % 51 % 52 % 1022,2 hPa 0,0 l/m 5,1 km/h (1 Bft) O-SO 112 7,0 C 17,2 C 2,4 km/h (1 Bft)
03.06.2023 11:02 23,6 C 16,8 C 30,8 C 17,1 C 45 % 51 % 53 % 1022,2 hPa 0,0 l/m 5,3 km/h (1 Bft) N-NO 22 6,6 C 16,8 C 13,8 km/h (3 Bft)
03.06.2023 11:00 23,6 C 16,7 C 30,0 C 17,0 C 45 % 50 % 52 % 1022,2 hPa 0,0 l/m 5,3 km/h (1 Bft) O 90 6,2 C 16,7 C 13,8 km/h (3 Bft)
03.06.2023 10:58 23,6 C 16,7 C 32,0 C 17,0 C 45 % 50 % 52 % 1022,2 hPa 0,0 l/m 4,7 km/h (1 Bft) S-SW 202 6,2 C 16,7 C 12,1 km/h (2 Bft)
03.06.2023 10:56 23,6 C 16,8 C 30,1 C 17,0 C 45 % 49 % 53 % 1022,2 hPa 0,0 l/m 4,2 km/h (1 Bft) W-NW 292 6,0 C 16,8 C 7,2 km/h (2 Bft)
03.06.2023 10:54 23,6 C 16,7 C 27,2 C 16,9 C 45 % 49 % 53 % 1022,2 hPa 0,0 l/m 4,8 km/h (1 Bft) SW 225 5,9 C 16,7 C 6,5 km/h (2 Bft)
03.06.2023 10:52 23,6 C 16,6 C 24,7 C 16,8 C 45 % 50 % 53 % 1022,2 hPa 0,0 l/m 5,0 km/h (1 Bft) O-NO 67 6,1 C 16,6 C 16,9 km/h (3 Bft)
03.06.2023 10:50 23,6 C 16,4 C 23,0 C 16,7 C 45 % 49 % 53 % 1022,2 hPa 0,0 l/m 5,8 km/h (2 Bft) SW 225 5,7 C 16,4 C 16,9 km/h (3 Bft)
03.06.2023 10:48 23,6 C 16,6 C 22,7 C 16,7 C 45 % 48 % 53 % 1022,4 hPa 0,0 l/m 5,8 km/h (2 Bft) W-SW 247 5,5 C 16,6 C 14,2 km/h (3 Bft)
03.06.2023 10:46 23,6 C 16,6 C 22,0 C 16,7 C 45 % 50 % 53 % 1022,4 hPa 0,0 l/m 5,3 km/h (1 Bft) W-SW 247 6,1 C 16,6 C 14,2 km/h (3 Bft)
03.06.2023 10:44 23,6 C 16,6 C 22,3 C 16,8 C 45 % 49 % 53 % 1022,4 hPa 0,0 l/m 5,0 km/h (1 Bft) S-SW 202 5,8 C 16,6 C 11,3 km/h (2 Bft)
03.06.2023 10:42 23,6 C 16,6 C 22,9 C 16,9 C 45 % 51 % 54 % 1022,4 hPa 0,0 l/m 4,3 km/h (1 Bft) S-SO 157 6,4 C 16,6 C 22,7 km/h (4 Bft)
03.06.2023 10:40 23,6 C 16,6 C 22,1 C 16,8 C 45 % 50 % 54 % 1022,4 hPa 0,0 l/m 4,0 km/h (1 Bft) S-SW 202 6,1 C 16,6 C 22,7 km/h (4 Bft)
03.06.2023 10:38 23,6 C 16,7 C 23,0 C 16,8 C 45 % 51 % 55 % 1022,4 hPa 0,0 l/m 3,4 km/h (1 Bft) S-SO 157 6,5 C 16,7 C 10,1 km/h (2 Bft)
03.06.2023 10:36 23,6 C 16,7 C 24,4 C 16,7 C 45 % 51 % 55 % 1022,4 hPa 0,0 l/m 3,5 km/h (1 Bft) S-SO 157 6,5 C 16,7 C 10,1 km/h (2 Bft)
03.06.2023 10:34 23,6 C 16,6 C 24,1 C 16,5 C 45 % 52 % 56 % 1022,4 hPa 0,0 l/m 3,7 km/h (1 Bft) O 90 6,7 C 16,6 C 10,1 km/h (2 Bft)
03.06.2023 10:32 23,6 C 16,4 C 22,9 C 16,3 C 45 % 51 % 55 % 1022,4 hPa 0,0 l/m 3,2 km/h (1 Bft) W-SW 247 6,2 C 16,4 C 4,6 km/h (1 Bft)
03.06.2023 10:30 23,6 C 16,5 C 22,8 C 16,1 C 45 % 52 % 54 % 1022,4 hPa 0,0 l/m 4,0 km/h (1 Bft) W 270 6,6 C 16,5 C 10,6 km/h (2 Bft)
03.06.2023 10:28 23,6 C 16,5 C 21,2 C 15,9 C 45 % 51 % 55 % 1022,4 hPa 0,0 l/m 3,9 km/h (1 Bft) N-NW 337 6,3 C 16,5 C 10,6 km/h (2 Bft)
03.06.2023 10:26 23,6 C 16,4 C 21,8 C 15,9 C 45 % 54 % 55 % 1022,4 hPa 0,0 l/m 3,7 km/h (1 Bft) N-NW 337 7,1 C 16,4 C 9,9 km/h (2 Bft)
03.06.2023 10:24 23,6 C 16,0 C 20,2 C 15,7 C 45 % 51 % 55 % 1022,4 hPa 0,0 l/m 4,0 km/h (1 Bft) NO 45 5,9 C 16,0 C 6,3 km/h (2 Bft)
03.06.2023 10:22 23,6 C 15,9 C 21,8 C 15,6 C 45 % 51 % 54 % 1022,4 hPa 0,0 l/m 4,5 km/h (1 Bft) W 270 5,8 C 15,9 C 14,0 km/h (3 Bft)
03.06.2023 10:20 23,6 C 16,2 C 22,0 C 15,6 C 45 % 50 % 55 % 1022,4 hPa 0,0 l/m 4,7 km/h (1 Bft) S-SO 157 5,8 C 16,2 C 14,0 km/h (3 Bft)
03.06.2023 10:18 23,6 C 16,3 C 22,1 C 15,6 C 45 % 52 % 55 % 1022,4 hPa 0,0 l/m 4,5 km/h (1 Bft) O-SO 112 6,4 C 16,3 C 10,1 km/h (2 Bft)
03.06.2023 10:16 23,6 C 16,3 C 23,2 C 15,7 C 45 % 53 % 55 % 1022,4 hPa 0,0 l/m 4,7 km/h (1 Bft) S-SW 202 6,7 C 16,3 C 10,1 km/h (2 Bft)
03.06.2023 10:14 23,6 C 16,1 C 23,5 C 15,7 C 45 % 52 % 55 % 1022,4 hPa 0,0 l/m 4,3 km/h (1 Bft) N-NW 337 6,2 C 16,1 C 10,1 km/h (2 Bft)
03.06.2023 10:12 23,6 C 16,0 C 23,4 C 15,9 C 45 % 53 % 56 % 1022,4 hPa 0,0 l/m 3,7 km/h (1 Bft) SW 225 6,4 C 16,0 C 5,1 km/h (1 Bft)
03.06.2023 10:10 23,6 C 15,6 C 22,9 C 16,0 C 45 % 56 % 56 % 1022,4 hPa 0,0 l/m 3,9 km/h (1 Bft) O-SO 112 6,9 C 15,6 C 13,5 km/h (3 Bft)
03.06.2023 10:08 23,6 C 15,5 C 23,7 C 15,7 C 45 % 55 % 57 % 1022,4 hPa 0,0 l/m 4,8 km/h (1 Bft) W-SW 247 6,5 C 15,5 C 13,5 km/h (3 Bft)
03.06.2023 10:06 23,6 C 15,7 C 25,0 C 15,5 C 45 % 54 % 57 % 1022,4 hPa 0,0 l/m 4,7 km/h (1 Bft) W 270 6,4 C 15,7 C 13,0 km/h (3 Bft)
03.06.2023 10:04 23,6 C 15,5 C 25,1 C 15,4 C 45 % 55 % 57 % 1022,4 hPa 0,0 l/m 4,7 km/h (1 Bft) NW 315 6,5 C 15,5 C 4,8 km/h (1 Bft)
03.06.2023 10:02 23,6 C 15,5 C 24,7 C 15,3 C 45 % 54 % 57 % 1022,4 hPa 0,0 l/m 5,3 km/h (1 Bft) N-NO 22 6,2 C 15,5 C 10,6 km/h (2 Bft)
03.06.2023 10:00 23,6 C 15,7 C 25,8 C 15,2 C 45 % 55 % 57 % 1022,4 hPa 0,0 l/m 5,3 km/h (1 Bft) W 270 6,7 C 15,7 C 14,0 km/h (3 Bft)
03.06.2023 09:58 23,6 C 15,8 C 24,7 C 15,0 C 45 % 56 % 57 % 1022,4 hPa 0,0 l/m 5,6 km/h (1 Bft) W 270 7,0 C 15,8 C 14,0 km/h (3 Bft)
03.06.2023 09:56 23,6 C 15,4 C 24,2 C 14,9 C 45 % 57 % 58 % 1022,4 hPa 0,0 l/m 5,1 km/h (1 Bft) O-SO 112 6,9 C 15,4 C 7,7 km/h (2 Bft)
03.06.2023 09:54 23,6 C 14,9 C 22,9 C 14,8 C 45 % 57 % 58 % 1022,4 hPa 0,0 l/m 5,3 km/h (1 Bft) N-NO 22 6,5 C 14,9 C 22,7 km/h (4 Bft)
03.06.2023 09:52 23,6 C 14,9 C 22,4 C 14,8 C 45 % 57 % 58 % 1022,4 hPa 0,0 l/m 6,1 km/h (2 Bft) S-SO 157 6,5 C 14,9 C 22,7 km/h (4 Bft)
03.06.2023 09:50 23,6 C 14,8 C 22,6 C 14,8 C 45 % 56 % 59 % 1022,4 hPa 0,0 l/m 5,3 km/h (1 Bft) O-SO 112 6,1 C 14,8 C 8,7 km/h (2 Bft)
03.06.2023 09:48 23,6 C 14,8 C 22,3 C 14,7 C 45 % 57 % 59 % 1022,2 hPa 0,0 l/m 4,7 km/h (1 Bft) SW 225 6,4 C 14,8 C 8,7 km/h (2 Bft)
03.06.2023 09:46 23,6 C 14,5 C 23,1 C 14,6 C 45 % 58 % 59 % 1022,2 hPa 0,0 l/m 4,8 km/h (1 Bft) W 270 6,3 C 14,5 C 7,5 km/h (2 Bft)
03.06.2023 09:44 23,6 C 14,3 C 22,0 C 14,4 C 45 % 57 % 59 % 1022,2 hPa 0,0 l/m 4,8 km/h (1 Bft) W 270 5,9 C 14,3 C 22,2 km/h (4 Bft)
03.06.2023 09:42 23,6 C 13,9 C 20,4 C 14,4 C 45 % 58 % 60 % 1022,2 hPa 0,0 l/m 5,3 km/h (1 Bft) W-SW 247 5,8 C 13,9 C 22,2 km/h (4 Bft)
03.06.2023 09:40 23,6 C 13,9 C 20,6 C 14,3 C 45 % 58 % 59 % 1022,2 hPa 0,0 l/m 4,7 km/h (1 Bft) N-NO 22 5,8 C 13,9 C 6,5 km/h (2 Bft)
03.06.2023 09:38 23,6 C 13,9 C 21,0 C 14,2 C 45 % 58 % 59 % 1022,2 hPa 0,0 l/m 4,7 km/h (1 Bft) W 270 5,8 C 13,9 C 18,6 km/h (3 Bft)
03.06.2023 09:36 23,6 C 13,9 C 20,5 C 14,0 C 45 % 59 % 60 % 1022,2 hPa 0,0 l/m 5,3 km/h (1 Bft) S-SW 202 6,0 C 13,9 C 18,6 km/h (3 Bft)
03.06.2023 09:34 23,6 C 14,2 C 21,5 C 14,0 C 45 % 58 % 60 % 1022,2 hPa 0,0 l/m 4,5 km/h (1 Bft) SW 225 6,1 C 14,2 C 15,7 km/h (3 Bft)
03.06.2023 09:32 23,6 C 14,3 C 22,2 C 13,9 C 45 % 59 % 59 % 1022,2 hPa 0,0 l/m 4,0 km/h (1 Bft) W 270 6,4 C 14,3 C 15,7 km/h (3 Bft)
03.06.2023 09:30 23,6 C 14,1 C 20,0 C 14,0 C 45 % 58 % 60 % 1022,2 hPa 0,0 l/m 3,2 km/h (1 Bft) W 270 6,0 C 14,1 C 11,6 km/h (2 Bft)
03.06.2023 09:28 23,6 C 13,8 C 18,9 C 13,8 C 45 % 59 % 61 % 1022,2 hPa 0,0 l/m 2,9 km/h (1 Bft) SW 225 5,9 C 13,8 C 17,4 km/h (3 Bft)
03.06.2023 09:26 23,6 C 13,5 C 18,0 C 13,8 C 45 % 61 % 61 % 1022,2 hPa 0,0 l/m 2,6 km/h (1 Bft) SW 225 6,1 C 13,5 C 17,4 km/h (3 Bft)
03.06.2023 09:24 23,6 C 13,3 C 17,8 C 13,7 C 45 % 61 % 61 % 1022,2 hPa 0,0 l/m 1,8 km/h (1 Bft) W 270 5,9 C 13,3 C 5,1 km/h (1 Bft)
03.06.2023 09:22 23,6 C 13,2 C 17,2 C 13,5 C 45 % 60 % 61 % 1022,2 hPa 0,0 l/m 1,8 km/h (1 Bft) NW 315 5,6 C 13,2 C 5,1 km/h (1 Bft)
03.06.2023 09:20 23,6 C 13,2 C 17,2 C 13,4 C 45 % 60 % 61 % 1022,2 hPa 0,0 l/m 2,3 km/h (1 Bft) W 270 5,6 C 13,2 C 3,6 km/h (1 Bft)
03.06.2023 09:18 23,6 C 13,2 C 17,3 C 13,2 C 45 % 60 % 60 % 1022,2 hPa 0,0 l/m 3,1 km/h (1 Bft) S-SW 202 5,6 C 13,2 C 3,1 km/h (1 Bft)
03.06.2023 09:16 23,6 C 13,1 C 16,7 C 13,2 C 45 % 61 % 60 % 1022,2 hPa 0,0 l/m 3,9 km/h (1 Bft) W-SW 247 5,8 C 13,1 C 3,1 km/h (1 Bft)
03.06.2023 09:14 23,6 C 13,0 C 16,4 C 13,2 C 45 % 61 % 60 % 1022,2 hPa 0,0 l/m 4,2 km/h (1 Bft) SW 225 5,7 C 13,0 C 3,1 km/h (1 Bft)
03.06.2023 09:12 23,6 C 12,9 C 16,4 C 13,1 C 45 % 61 % 60 % 1022,2 hPa 0,0 l/m 5,0 km/h (1 Bft) S-SO 157 5,6 C 12,9 C 12,3 km/h (3 Bft)
03.06.2023 09:10 23,6 C 12,8 C 16,3 C 13,1 C 45 % 62 % 60 % 1022,2 hPa 0,0 l/m 5,8 km/h (2 Bft) S-SO 157 5,7 C 12,8 C 12,3 km/h (3 Bft)
03.06.2023 09:08 23,6 C 12,8 C 16,4 C 13,1 C 45 % 61 % 61 % 1022,2 hPa 0,0 l/m 5,1 km/h (1 Bft) S 180 5,5 C 12,8 C 11,1 km/h (2 Bft)
03.06.2023 09:06 23,6 C 12,7 C 16,2 C 13,0 C 45 % 61 % 61 % 1022,2 hPa 0,0 l/m 5,1 km/h (1 Bft) S-SO 157 5,4 C 12,7 C 9,4 km/h (2 Bft)
03.06.2023 09:04 23,6 C 12,6 C 15,5 C 12,9 C 45 % 62 % 62 % 1022,2 hPa 0,0 l/m 5,0 km/h (1 Bft) S-SO 157 5,5 C 12,6 C 26,6 km/h (4 Bft)
03.06.2023 09:02 23,6 C 12,5 C 15,4 C 12,9 C 45 % 61 % 62 % 1022,2 hPa 0,0 l/m 4,8 km/h (1 Bft) O-SO 112 5,2 C 12,5 C 16,2 km/h (3 Bft)
03.06.2023 09:00 23,6 C 12,5 C 15,0 C 12,9 C 45 % 61 % 62 % 1022,2 hPa 0,0 l/m 4,5 km/h (1 Bft) S-SO 157 5,2 C 12,5 C 16,2 km/h (3 Bft)
03.06.2023 08:58 23,6 C 12,6 C 15,1 C 13,0 C 45 % 61 % 60 % 1022,2 hPa 0,0 l/m 4,5 km/h (1 Bft) NO 45 5,3 C 12,6 C 8,2 km/h (2 Bft)
03.06.2023 08:56 23,6 C 12,6 C 15,5 C 13,0 C 45 % 62 % 61 % 1022,2 hPa 0,0 l/m 4,2 km/h (1 Bft) W-SW 247 5,5 C 12,6 C 6,0 km/h (2 Bft)
03.06.2023 08:54 23,6 C 12,5 C 15,5 C 13,0 C 45 % 62 % 62 % 1022,2 hPa 0,0 l/m 4,0 km/h (1 Bft) NW 315 5,4 C 12,5 C 6,0 km/h (2 Bft)
03.06.2023 08:52 23,6 C 12,5 C 15,3 C 12,9 C 45 % 62 % 64 % 1022,2 hPa 0,0 l/m 4,5 km/h (1 Bft) W 270 5,4 C 12,5 C 10,4 km/h (2 Bft)
03.06.2023 08:50 23,6 C 12,4 C 14,9 C 12,9 C 45 % 63 % 64 % 1022,2 hPa 0,0 l/m 4,8 km/h (1 Bft) O 90 5,6 C 12,4 C 15,2 km/h (3 Bft)
03.06.2023 08:48 23,6 C 12,4 C 15,1 C 12,8 C 45 % 63 % 64 % 1022,4 hPa 0,0 l/m 4,5 km/h (1 Bft) SW 225 5,6 C 12,4 C 15,2 km/h (3 Bft)
03.06.2023 08:46 23,6 C 12,3 C 15,3 C 12,5 C 45 % 63 % 64 % 1022,4 hPa 0,0 l/m 4,2 km/h (1 Bft) W 270 5,5 C 12,3 C 4,8 km/h (1 Bft)
03.06.2023 08:44 23,6 C 12,2 C 15,1 C 12,5 C 45 % 64 % 64 % 1022,4 hPa 0,0 l/m 4,3 km/h (1 Bft) W-SW 247 5,6 C 12,2 C 7,2 km/h (2 Bft)
03.06.2023 08:42 23,6 C 12,2 C 15,1 C 12,5 C 45 % 64 % 64 % 1022,4 hPa 0,0 l/m 3,5 km/h (1 Bft) W-SW 247 5,6 C 12,2 C 10,6 km/h (2 Bft)
03.06.2023 08:40 23,6 C 12,1 C 14,6 C 12,4 C 45 % 64 % 64 % 1022,4 hPa 0,0 l/m 3,7 km/h (1 Bft) W-NW 292 5,5 C 12,1 C 10,6 km/h (2 Bft)
03.06.2023 08:38 23,6 C 12,0 C 14,3 C 12,4 C 45 % 64 % 64 % 1022,4 hPa 0,0 l/m 3,5 km/h (1 Bft) N 360 5,4 C 12,0 C 8,0 km/h (2 Bft)
03.06.2023 08:36 23,6 C 11,9 C 14,0 C 12,3 C 45 % 64 % 64 % 1022,4 hPa 0,0 l/m 3,5 km/h (1 Bft) W-SW 247 5,3 C 11,9 C 8,0 km/h (2 Bft)
03.06.2023 08:34 23,6 C 11,9 C 13,6 C 12,3 C 45 % 64 % 64 % 1022,4 hPa 0,0 l/m 3,1 km/h (1 Bft) W-SW 247 5,3 C 11,9 C 2,9 km/h (1 Bft)
03.06.2023 08:32 23,6 C 11,8 C 13,6 C 12,2 C 45 % 64 % 64 % 1022,4 hPa 0,0 l/m 3,2 km/h (1 Bft) O 90 5,2 C 11,8 C 14,2 km/h (3 Bft)
03.06.2023 08:30 23,6 C 11,8 C 13,9 C 12,2 C 45 % 64 % 64 % 1022,4 hPa 0,0 l/m 3,1 km/h (1 Bft) SW 225 5,2 C 11,8 C 14,2 km/h (3 Bft)
03.06.2023 08:28 23,6 C 11,8 C 14,0 C 12,1 C 45 % 65 % 64 % 1022,2 hPa 0,0 l/m 3,2 km/h (1 Bft) SW 225 5,4 C 11,8 C 10,9 km/h (2 Bft)
03.06.2023 08:26 23,6 C 11,8 C 13,9 C 12,0 C 45 % 65 % 64 % 1022,2 hPa 0,0 l/m 3,1 km/h (1 Bft) S-SW 202 5,4 C 11,8 C 7,7 km/h (2 Bft)
03.06.2023 08:24 23,6 C 11,7 C 14,3 C 12,0 C 45 % 66 % 64 % 1022,2 hPa 0,0 l/m 3,1 km/h (1 Bft) N 360 5,6 C 11,7 C 5,1 km/h (1 Bft)
03.06.2023 08:22 23,6 C 11,7 C 14,0 C 11,9 C 45 % 65 % 65 % 1022,2 hPa 0,0 l/m 3,5 km/h (1 Bft) W-SW 247 5,3 C 11,7 C 5,8 km/h (2 Bft)
03.06.2023 08:20 23,6 C 11,6 C 14,1 C 11,9 C 45 % 66 % 65 % 1022,2 hPa 0,0 l/m 4,0 km/h (1 Bft) W-SW 247 5,5 C 11,6 C 7,2 km/h (2 Bft)
03.06.2023 08:18 23,6 C 11,6 C 13,9 C 11,9 C 45 % 65 % 65 % 1022,2 hPa 0,0 l/m 4,2 km/h (1 Bft) N 360 5,2 C 11,6 C 7,7 km/h (2 Bft)
03.06.2023 08:16 23,6 C 11,6 C 13,9 C 11,8 C 45 % 66 % 65 % 1022,2 hPa 0,0 l/m 4,0 km/h (1 Bft) NW 315 5,5 C 11,6 C 8,9 km/h (2 Bft)
03.06.2023 08:14 23,6 C 11,6 C 14,0 C 11,8 C 45 % 66 % 65 % 1022,2 hPa 0,0 l/m 3,9 km/h (1 Bft) NW 315 5,5 C 11,6 C 9,7 km/h (2 Bft)
03.06.2023 08:12 23,6 C 11,6 C 14,2 C 11,8 C 45 % 66 % 65 % 1022,2 hPa 0,0 l/m 3,5 km/h (1 Bft) N 360 5,5 C 11,6 C 9,7 km/h (2 Bft)
03.06.2023 08:10 23,6 C 11,5 C 14,1 C 11,8 C 45 % 66 % 65 % 1022,2 hPa 0,0 l/m 3,4 km/h (1 Bft) NW 315 5,4 C 11,5 C 8,9 km/h (2 Bft)
03.06.2023 08:08 23,6 C 11,5 C 13,9 C 11,8 C 45 % 66 % 65 % 1022,1 hPa 0,0 l/m 3,2 km/h (1 Bft) W-NW 292 5,4 C 11,5 C 6,8 km/h (2 Bft)
03.06.2023 08:06 23,6 C 11,5 C 13,7 C 11,6 C 45 % 66 % 66 % 1022,1 hPa 0,0 l/m 3,4 km/h (1 Bft) N 360 5,4 C 11,5 C 6,5 km/h (2 Bft)
03.06.2023 08:04 23,6 C 11,4 C 13,8 C 11,6 C 45 % 67 % 66 % 1022,1 hPa 0,0 l/m 2,7 km/h (1 Bft) W 270 5,5 C 11,4 C 5,1 km/h (1 Bft)
03.06.2023 08:02 23,6 C 11,4 C 13,6 C 11,6 C 45 % 67 % 66 % 1022,1 hPa 0,0 l/m 2,9 km/h (1 Bft) N 360 5,5 C 11,4 C 6,8 km/h (2 Bft)
03.06.2023 08:00 23,6 C 11,4 C 13,8 C 11,6 C 45 % 67 % 66 % 1022,1 hPa 0,0 l/m 3,2 km/h (1 Bft) W-NW 292 5,5 C 11,4 C 8,7 km/h (2 Bft)
03.06.2023 07:58 23,6 C 11,4 C 13,6 C 11,6 C 45 % 67 % 66 % 1022,1 hPa 0,0 l/m 3,2 km/h (1 Bft) O-SO 112 5,5 C 11,4 C 8,7 km/h (2 Bft)
03.06.2023 07:56 23,6 C 11,3 C 13,2 C 11,5 C 45 % 67 % 66 % 1022,1 hPa 0,0 l/m 2,6 km/h (1 Bft) N-NW 337 5,4 C 11,3 C 8,0 km/h (2 Bft)
03.06.2023 07:54 23,6 C 11,2 C 12,9 C 11,4 C 45 % 67 % 66 % 1022,1 hPa 0,0 l/m 2,9 km/h (1 Bft) S-SW 202 5,3 C 11,2 C 3,6 km/h (1 Bft)
03.06.2023 07:52 23,6 C 11,2 C 12,8 C 11,3 C 45 % 67 % 66 % 1022,1 hPa 0,0 l/m 3,2 km/h (1 Bft) O-NO 67 5,3 C 11,2 C 5,8 km/h (2 Bft)
03.06.2023 07:50 23,6 C 11,2 C 12,9 C 11,3 C 45 % 67 % 66 % 1022,1 hPa 0,0 l/m 3,1 km/h (1 Bft) W-SW 247 5,3 C 11,2 C 5,8 km/h (2 Bft)
03.06.2023 07:48 23,6 C 11,1 C 13,0 C 11,2 C 45 % 67 % 66 % 1022,2 hPa 0,0 l/m 2,7 km/h (1 Bft) W-SW 247 5,2 C 11,1 C 5,8 km/h (2 Bft)
03.06.2023 07:46 23,6 C 11,0 C 12,8 C 11,2 C 45 % 67 % 66 % 1022,2 hPa 0,0 l/m 3,1 km/h (1 Bft) N-NO 22 5,1 C 11,0 C 11,1 km/h (2 Bft)
03.06.2023 07:44 23,6 C 11,0 C 12,7 C 11,0 C 45 % 67 % 66 % 1022,2 hPa 0,0 l/m 3,4 km/h (1 Bft) SW 225 5,1 C 11,0 C 11,1 km/h (2 Bft)
03.06.2023 07:42 23,6 C 10,9 C 12,3 C 11,0 C 45 % 67 % 66 % 1022,2 hPa 0,0 l/m 3,4 km/h (1 Bft) SO 135 5,0 C 10,9 C 7,2 km/h (2 Bft)
03.06.2023 07:40 23,6 C 10,8 C 12,1 C 11,0 C 45 % 67 % 66 % 1022,2 hPa 0,0 l/m 3,2 km/h (1 Bft) N 360 4,9 C 10,8 C 7,2 km/h (2 Bft)
03.06.2023 07:38 23,6 C 10,8 C 11,9 C 10,9 C 45 % 67 % 66 % 1022,2 hPa 0,0 l/m 3,1 km/h (1 Bft) S 180 4,9 C 10,8 C 7,0 km/h (2 Bft)
03.06.2023 07:36 23,6 C 10,8 C 11,6 C 10,9 C 45 % 67 % 66 % 1022,2 hPa 0,0 l/m 3,2 km/h (1 Bft) W-SW 247 4,9 C 10,8 C 7,0 km/h (2 Bft)
03.06.2023 07:34 23,6 C 10,7 C 11,5 C 10,8 C 45 % 67 % 66 % 1022,2 hPa 0,0 l/m 3,2 km/h (1 Bft) W-SW 247 4,8 C 10,7 C 6,0 km/h (2 Bft)
03.06.2023 07:32 23,6 C 10,7 C 11,4 C 10,8 C 45 % 67 % 66 % 1022,2 hPa 0,0 l/m 2,7 km/h (1 Bft) N-NW 337 4,8 C 10,7 C 5,6 km/h (1 Bft)
03.06.2023 07:30 23,6 C 10,7 C 11,3 C 10,8 C 45 % 67 % 66 % 1022,2 hPa 0,0 l/m 3,1 km/h (1 Bft) W 270 4,8 C 10,7 C 11,6 km/h (2 Bft)
03.06.2023 07:28 23,6 C 10,6 C 11,4 C 10,8 C 45 % 67 % 66 % 1021,9 hPa 0,0 l/m 3,4 km/h (1 Bft) W-SW 247 4,7 C 10,6 C 11,6 km/h (2 Bft)
03.06.2023 07:26 23,6 C 10,6 C 11,2 C 10,7 C 45 % 67 % 67 % 1021,9 hPa 0,0 l/m 3,4 km/h (1 Bft) S-SW 202 4,7 C 10,6 C 8,7 km/h (2 Bft)
03.06.2023 07:24 23,6 C 10,6 C 11,3 C 10,7 C 45 % 68 % 67 % 1021,9 hPa 0,0 l/m 3,1 km/h (1 Bft) NW 315 4,9 C 10,6 C 7,5 km/h (2 Bft)
03.06.2023 07:22 23,6 C 10,6 C 11,3 C 10,7 C 45 % 67 % 67 % 1021,9 hPa 0,0 l/m 4,0 km/h (1 Bft) O-NO 67 4,7 C 10,6 C 17,1 km/h (3 Bft)
03.06.2023 07:20 23,6 C 10,6 C 11,4 C 10,6 C 45 % 68 % 67 % 1021,9 hPa 0,0 l/m 4,8 km/h (1 Bft) O-SO 112 4,9 C 10,6 C 17,1 km/h (3 Bft)
03.06.2023 07:18 23,6 C 10,5 C 11,5 C 10,6 C 45 % 69 % 67 % 1021,9 hPa 0,0 l/m 4,3 km/h (1 Bft) W-NW 292 5,1 C 10,5 C 7,7 km/h (2 Bft)
03.06.2023 07:16 23,6 C 10,4 C 11,2 C 10,5 C 45 % 68 % 67 % 1021,9 hPa 0,0 l/m 4,5 km/h (1 Bft) W 270 4,8 C 10,4 C 7,7 km/h (2 Bft)
03.06.2023 07:14 23,6 C 10,3 C 11,0 C 10,5 C 45 % 68 % 67 % 1021,9 hPa 0,0 l/m 4,5 km/h (1 Bft) NW 315 4,7 C 10,3 C 14,2 km/h (3 Bft)
03.06.2023 07:12 23,6 C 10,3 C 10,9 C 10,5 C 45 % 69 % 67 % 1021,9 hPa 0,0 l/m 4,0 km/h (1 Bft) NW 315 4,9 C 10,3 C 14,2 km/h (3 Bft)
03.06.2023 07:10 23,6 C 10,3 C 10,9 C 10,4 C 45 % 70 % 67 % 1021,9 hPa 0,0 l/m 3,9 km/h (1 Bft) S-SW 202 5,1 C 10,3 C 13,3 km/h (3 Bft)
03.06.2023 07:08 23,6 C 10,2 C 11,0 C 10,4 C 45 % 70 % 67 % 1021,9 hPa 0,0 l/m 3,5 km/h (1 Bft) W 270 5,0 C 10,2 C 9,2 km/h (2 Bft)
03.06.2023 07:06 23,6 C 10,2 C 11,1 C 10,4 C 45 % 70 % 67 % 1021,9 hPa 0,0 l/m 3,7 km/h (1 Bft) W-NW 292 5,0 C 10,2 C 9,2 km/h (2 Bft)
03.06.2023 07:04 23,6 C 10,2 C 10,8 C 10,3 C 45 % 70 % 67 % 1021,9 hPa 0,0 l/m 3,5 km/h (1 Bft) N 360 5,0 C 10,2 C 8,0 km/h (2 Bft)
03.06.2023 07:02 23,6 C 10,1 C 10,7 C 10,2 C 45 % 70 % 67 % 1021,9 hPa 0,0 l/m 3,7 km/h (1 Bft) W-SW 247 4,9 C 10,1 C 9,7 km/h (2 Bft)
03.06.2023 07:00 23,6 C 10,1 C 10,6 C 10,2 C 45 % 71 % 67 % 1021,9 hPa 0,0 l/m 4,2 km/h (1 Bft) N-NW 337 5,1 C 10,1 C 9,7 km/h (2 Bft)
03.06.2023 06:58 23,6 C 10,0 C 10,5 C 10,1 C 45 % 71 % 68 % 1021,9 hPa 0,0 l/m 4,3 km/h (1 Bft) NW 315 5,0 C 10,0 C 10,4 km/h (2 Bft)
03.06.2023 06:56 23,6 C 10,0 C 10,4 C 10,1 C 45 % 71 % 68 % 1021,9 hPa 0,0 l/m 4,5 km/h (1 Bft) W-NW 292 5,0 C 10,0 C 10,4 km/h (2 Bft)
03.06.2023 06:54 23,6 C 10,0 C 10,2 C 10,0 C 45 % 71 % 68 % 1021,9 hPa 0,0 l/m 4,3 km/h (1 Bft) W 270 5,0 C 10,0 C 10,9 km/h (2 Bft)
03.06.2023 06:52 23,6 C 9,9 C 9,9 C 10,0 C 45 % 71 % 68 % 1021,9 hPa 0,0 l/m 4,2 km/h (1 Bft) W-SW 247 4,9 C 9,9 C 10,9 km/h (2 Bft)
03.06.2023 06:50 23,6 C 9,9 C 9,8 C 9,9 C 45 % 71 % 69 % 1021,9 hPa 0,0 l/m 4,3 km/h (1 Bft) W-NW 292 4,9 C 9,9 C 10,6 km/h (2 Bft)
03.06.2023 06:48 23,6 C 9,8 C 9,5 C 9,9 C 45 % 71 % 69 % 1021,9 hPa 0,0 l/m 3,9 km/h (1 Bft) W 270 4,8 C 9,8 C 9,7 km/h (2 Bft)
03.06.2023 06:46 23,6 C 9,8 C 9,3 C 9,9 C 45 % 71 % 69 % 1021,9 hPa 0,0 l/m 3,7 km/h (1 Bft) W 270 4,8 C 9,8 C 9,7 km/h (2 Bft)
03.06.2023 06:44 23,6 C 9,8 C 9,1 C 9,9 C 45 % 71 % 69 % 1021,9 hPa 0,0 l/m 4,0 km/h (1 Bft) W-SW 247 4,8 C 9,8 C 5,8 km/h (2 Bft)
03.06.2023 06:42 23,6 C 9,8 C 9,1 C 9,9 C 45 % 71 % 69 % 1021,9 hPa 0,0 l/m 4,2 km/h (1 Bft) N-NW 337 4,8 C 9,8 C 13,8 km/h (3 Bft)
03.06.2023 06:40 23,6 C 9,7 C 9,0 C 9,8 C 45 % 72 % 69 % 1021,9 hPa 0,0 l/m 4,2 km/h (1 Bft) W 270 4,9 C 9,7 C 13,8 km/h (3 Bft)
03.06.2023 06:38 23,6 C 9,7 C 9,1 C 9,8 C 45 % 72 % 69 % 1021,9 hPa 0,0 l/m 4,2 km/h (1 Bft) W-NW 292 4,9 C 9,7 C 5,3 km/h (1 Bft)
03.06.2023 06:36 23,6 C 9,7 C 9,1 C 9,8 C 45 % 72 % 69 % 1021,9 hPa 0,0 l/m 4,7 km/h (1 Bft) W-NW 292 4,9 C 9,7 C 8,9 km/h (2 Bft)
03.06.2023 06:34 23,6 C 9,7 C 9,1 C 9,8 C 45 % 72 % 69 % 1021,9 hPa 0,0 l/m 4,8 km/h (1 Bft) W-NW 292 4,9 C 9,7 C 8,9 km/h (2 Bft)
03.06.2023 06:32 23,6 C 9,7 C 8,9 C 9,8 C 45 % 72 % 69 % 1021,9 hPa 0,0 l/m 4,7 km/h (1 Bft) W-SW 247 4,9 C 9,7 C 8,9 km/h (2 Bft)
03.06.2023 06:30 23,6 C 9,7 C 9,0 C 9,8 C 45 % 72 % 69 % 1021,9 hPa 0,0 l/m 4,3 km/h (1 Bft) W 270 4,9 C 9,7 C 10,4 km/h (2 Bft)
03.06.2023 06:28 23,6 C 9,7 C 8,7 C 9,8 C 45 % 72 % 69 % 1021,9 hPa 0,0 l/m 3,9 km/h (1 Bft) NW 315 4,9 C 9,7 C 10,4 km/h (2 Bft)
03.06.2023 06:26 23,6 C 9,7 C 8,7 C 9,8 C 45 % 72 % 69 % 1021,9 hPa 0,0 l/m 3,1 km/h (1 Bft) W-SW 247 4,9 C 9,7 C 9,7 km/h (2 Bft)
03.06.2023 06:24 23,6 C 9,7 C 8,6 C 9,8 C 45 % 72 % 70 % 1021,9 hPa 0,0 l/m 2,7 km/h (1 Bft) W 270 4,9 C 9,7 C 9,7 km/h (2 Bft)
03.06.2023 06:22 23,6 C 9,7 C 8,8 C 9,8 C 45 % 72 % 70 % 1021,9 hPa 0,0 l/m 2,7 km/h (1 Bft) W-NW 292 4,9 C 9,7 C 4,6 km/h (1 Bft)
03.06.2023 06:20 23,6 C 9,7 C 8,8 C 9,8 C 45 % 72 % 70 % 1021,9 hPa 0,0 l/m 3,1 km/h (1 Bft) S-SO 157 4,9 C 9,7 C 6,5 km/h (2 Bft)
03.06.2023 06:18 23,6 C 9,7 C 8,7 C 9,9 C 45 % 72 % 70 % 1021,9 hPa 0,0 l/m 2,9 km/h (1 Bft) N-NW 337 4,9 C 9,7 C 6,5 km/h (2 Bft)
03.06.2023 06:16 23,6 C 9,7 C 8,7 C 9,9 C 45 % 72 % 70 % 1021,9 hPa 0,0 l/m 3,2 km/h (1 Bft) NO 45 4,9 C 9,7 C 3,4 km/h (1 Bft)
03.06.2023 06:14 23,6 C 9,8 C 8,8 C 9,9 C 45 % 72 % 70 % 1021,9 hPa 0,0 l/m 3,2 km/h (1 Bft) N-NW 337 5,0 C 9,8 C 9,2 km/h (2 Bft)
03.06.2023 06:12 23,6 C 9,8 C 8,9 C 9,9 C 45 % 72 % 70 % 1021,9 hPa 0,0 l/m 3,4 km/h (1 Bft) W-NW 292 5,0 C 9,8 C 9,2 km/h (2 Bft)
03.06.2023 06:10 23,6 C 9,8 C 8,9 C 9,9 C 45 % 72 % 70 % 1021,9 hPa 0,0 l/m 2,9 km/h (1 Bft) W 270 5,0 C 9,8 C 5,1 km/h (1 Bft)
03.06.2023 06:08 23,6 C 9,8 C 9,0 C 9,9 C 45 % 73 % 70 % 1021,8 hPa 0,0 l/m 3,9 km/h (1 Bft) W-SW 247 5,2 C 9,8 C 5,3 km/h (1 Bft)
03.06.2023 06:06 23,6 C 9,8 C 9,0 C 9,8 C 45 % 73 % 70 % 1021,8 hPa 0,0 l/m 4,7 km/h (1 Bft) W 270 5,2 C 9,8 C 8,7 km/h (2 Bft)
03.06.2023 06:04 23,6 C 9,8 C 9,1 C 9,9 C 45 % 73 % 71 % 1021,8 hPa 0,0 l/m 5,5 km/h (1 Bft) W 270 5,2 C 9,8 C 8,7 km/h (2 Bft)
03.06.2023 06:02 23,6 C 9,9 C 9,2 C 9,9 C 45 % 73 % 71 % 1021,8 hPa 0,0 l/m 5,6 km/h (1 Bft) W-NW 292 5,3 C 9,9 C 13,0 km/h (3 Bft)
03.06.2023 06:00 23,6 C 9,9 C 9,2 C 9,9 C 45 % 73 % 71 % 1021,8 hPa 0,0 l/m 5,6 km/h (1 Bft) W 270 5,3 C 9,9 C 14,2 km/h (3 Bft)
03.06.2023 05:58 23,6 C 9,9 C 9,3 C 9,9 C 45 % 73 % 71 % 1021,8 hPa 0,0 l/m 5,0 km/h (1 Bft) W 270 5,3 C 9,9 C 14,2 km/h (3 Bft)
03.06.2023 05:56 23,6 C 9,9 C 9,3 C 10,0 C 45 % 73 % 71 % 1021,8 hPa 0,0 l/m 4,7 km/h (1 Bft) N-NW 337 5,3 C 9,9 C 14,0 km/h (3 Bft)
03.06.2023 05:54 23,6 C 10,0 C 9,5 C 10,0 C 45 % 73 % 71 % 1021,8 hPa 0,0 l/m 4,5 km/h (1 Bft) W 270 5,4 C 10,0 C 14,0 km/h (3 Bft)
03.06.2023 05:52 23,6 C 10,0 C 9,4 C 10,0 C 45 % 73 % 71 % 1021,8 hPa 0,0 l/m 3,7 km/h (1 Bft) W 270 5,4 C 10,0 C 12,6 km/h (3 Bft)
03.06.2023 05:50 23,6 C 10,0 C 9,4 C 10,0 C 45 % 73 % 71 % 1021,8 hPa 0,0 l/m 3,2 km/h (1 Bft) W-SW 247 5,4 C 10,0 C 5,6 km/h (1 Bft)
03.06.2023 05:48 23,6 C 10,0 C 9,5 C 10,0 C 45 % 73 % 71 % 1021,5 hPa 0,0 l/m 3,4 km/h (1 Bft) W 270 5,4 C 10,0 C 13,0 km/h (3 Bft)
03.06.2023 05:46 23,6 C 10,0 C 9,4 C 9,9 C 45 % 73 % 71 % 1021,5 hPa 0,0 l/m 3,4 km/h (1 Bft) S-SW 202 5,4 C 10,0 C 13,0 km/h (3 Bft)
03.06.2023 05:44 23,6 C 10,0 C 9,4 C 9,8 C 45 % 73 % 72 % 1021,5 hPa 0,0 l/m 2,9 km/h (1 Bft) SW 225 5,4 C 10,0 C 8,0 km/h (2 Bft)
03.06.2023 05:42 23,6 C 10,0 C 9,4 C 9,7 C 45 % 73 % 72 % 1021,5 hPa 0,0 l/m 3,2 km/h (1 Bft) O-NO 67 5,4 C 10,0 C 8,2 km/h (2 Bft)
03.06.2023 05:40 23,6 C 10,0 C 9,4 C 9,7 C 45 % 73 % 72 % 1021,5 hPa 0,0 l/m 3,5 km/h (1 Bft) W 270 5,4 C 10,0 C 10,4 km/h (2 Bft)
03.06.2023 05:38 23,6 C 10,0 C 9,4 C 9,7 C 45 % 73 % 71 % 1021,5 hPa 0,0 l/m 4,2 km/h (1 Bft) W-SW 247 5,4 C 10,0 C 10,4 km/h (2 Bft)
03.06.2023 05:36 23,6 C 10,0 C 9,5 C 9,7 C 45 % 73 % 71 % 1021,5 hPa 0,0 l/m 4,2 km/h (1 Bft) S-SW 202 5,4 C 10,0 C 5,3 km/h (1 Bft)
03.06.2023 05:34 23,6 C 10,0 C 9,5 C 9,7 C 45 % 73 % 71 % 1021,5 hPa 0,0 l/m 3,5 km/h (1 Bft) W-NW 292 5,4 C 10,0 C 10,1 km/h (2 Bft)
03.06.2023 05:32 23,6 C 10,0 C 9,6 C 9,8 C 45 % 73 % 71 % 1021,5 hPa 0,0 l/m 3,4 km/h (1 Bft) W-SW 247 5,4 C 10,0 C 10,1 km/h (2 Bft)
03.06.2023 05:30 23,6 C 10,0 C 9,4 C 9,8 C 45 % 73 % 71 % 1021,5 hPa 0,0 l/m 2,9 km/h (1 Bft) W 270 5,4 C 10,0 C 12,6 km/h (3 Bft)
03.06.2023 05:28 23,6 C 10,0 C 9,2 C 9,8 C 45 % 72 % 71 % 1021,4 hPa 0,0 l/m 2,9 km/h (1 Bft) W 270 5,2 C 10,0 C 12,6 km/h (3 Bft)
03.06.2023 05:26 23,6 C 10,0 C 9,2 C 9,9 C 45 % 72 % 70 % 1021,4 hPa 0,0 l/m 2,9 km/h (1 Bft) W 270 5,2 C 10,0 C 4,8 km/h (1 Bft)
03.06.2023 05:24 23,6 C 10,0 C 8,9 C 9,9 C 45 % 72 % 70 % 1021,4 hPa 0,0 l/m 3,4 km/h (1 Bft) O 90 5,2 C 10,0 C 6,8 km/h (2 Bft)
03.06.2023 05:22 23,6 C 10,0 C 8,6 C 10,0 C 45 % 72 % 70 % 1021,4 hPa 0,0 l/m 3,9 km/h (1 Bft) W-SW 247 5,2 C 10,0 C 6,8 km/h (2 Bft)
03.06.2023 05:20 23,6 C 10,0 C 8,6 C 10,0 C 45 % 72 % 70 % 1021,4 hPa 0,0 l/m 3,7 km/h (1 Bft) W 270 5,2 C 10,0 C 7,0 km/h (2 Bft)
03.06.2023 05:18 23,6 C 10,0 C 8,5 C 10,1 C 45 % 72 % 70 % 1021,4 hPa 0,0 l/m 3,4 km/h (1 Bft) NW 315 5,2 C 10,0 C 10,4 km/h (2 Bft)
03.06.2023 05:16 23,6 C 10,1 C 8,4 C 10,0 C 45 % 72 % 70 % 1021,4 hPa 0,0 l/m 3,1 km/h (1 Bft) W-SW 247 5,3 C 10,1 C 12,8 km/h (3 Bft)
03.06.2023 05:14 23,6 C 10,1 C 8,4 C 10,0 C 45 % 72 % 70 % 1021,4 hPa 0,0 l/m 2,9 km/h (1 Bft) W-SW 247 5,3 C 10,1 C 12,8 km/h (3 Bft)
03.06.2023 05:12 23,6 C 10,1 C 8,5 C 10,2 C 45 % 72 % 70 % 1021,4 hPa 0,0 l/m 2,6 km/h (1 Bft) W 270 5,3 C 10,1 C 4,3 km/h (1 Bft)
03.06.2023 05:10 23,6 C 10,1 C 8,7 C 10,2 C 45 % 72 % 70 % 1021,4 hPa 0,0 l/m 2,9 km/h (1 Bft) S-SW 202 5,3 C 10,1 C 4,6 km/h (1 Bft)
03.06.2023 05:08 23,6 C 10,2 C 8,8 C 10,2 C 45 % 72 % 70 % 1021,3 hPa 0,0 l/m 3,4 km/h (1 Bft) NW 315 5,4 C 10,2 C 5,8 km/h (2 Bft)
03.06.2023 05:06 23,6 C 10,2 C 8,7 C 10,3 C 45 % 72 % 70 % 1021,3 hPa 0,0 l/m 3,9 km/h (1 Bft) S-SW 202 5,4 C 10,2 C 5,8 km/h (2 Bft)
03.06.2023 05:04 23,6 C 10,2 C 8,8 C 10,4 C 45 % 72 % 70 % 1021,3 hPa 0,0 l/m 4,0 km/h (1 Bft) W 270 5,4 C 10,2 C 5,1 km/h (1 Bft)
03.06.2023 05:02 23,6 C 10,3 C 8,9 C 10,5 C 45 % 73 % 70 % 1021,3 hPa 0,0 l/m 3,7 km/h (1 Bft) SW 225 5,7 C 10,3 C 8,4 km/h (2 Bft)
03.06.2023 05:00 23,6 C 10,3 C 9,0 C 10,5 C 45 % 73 % 70 % 1021,3 hPa 0,0 l/m 3,4 km/h (1 Bft) N-NW 337 5,7 C 10,3 C 8,9 km/h (2 Bft)
03.06.2023 04:58 23,6 C 10,3 C 9,2 C 10,5 C 45 % 73 % 70 % 1021,3 hPa 0,0 l/m 3,9 km/h (1 Bft) W 270 5,7 C 10,3 C 12,6 km/h (3 Bft)
03.06.2023 04:56 23,6 C 10,3 C 9,4 C 10,5 C 45 % 73 % 70 % 1021,3 hPa 0,0 l/m 3,5 km/h (1 Bft) W 270 5,7 C 10,3 C 12,6 km/h (3 Bft)
03.06.2023 04:54 23,6 C 10,4 C 9,2 C 10,5 C 45 % 73 % 70 % 1021,3 hPa 0,0 l/m 3,2 km/h (1 Bft) W-NW 292 5,8 C 10,4 C 5,1 km/h (1 Bft)
03.06.2023 04:52 23,6 C 10,4 C 9,4 C 10,5 C 45 % 73 % 70 % 1021,3 hPa 0,0 l/m 3,5 km/h (1 Bft) S-SO 157 5,8 C 10,4 C 4,6 km/h (1 Bft)
03.06.2023 04:50 23,6 C 10,4 C 9,5 C 10,6 C 45 % 73 % 70 % 1021,3 hPa 0,0 l/m 4,2 km/h (1 Bft) S-SO 157 5,8 C 10,4 C 13,5 km/h (3 Bft)
03.06.2023 04:48 23,6 C 10,5 C 9,5 C 10,7 C 45 % 73 % 70 % 1021,4 hPa 0,0 l/m 3,9 km/h (1 Bft) S 180 5,9 C 10,5 C 13,5 km/h (3 Bft)
03.06.2023 04:46 23,6 C 10,5 C 9,6 C 10,8 C 45 % 73 % 70 % 1021,4 hPa 0,0 l/m 3,4 km/h (1 Bft) W-SW 247 5,9 C 10,5 C 10,9 km/h (2 Bft)
03.06.2023 04:44 23,6 C 10,5 C 9,7 C 10,8 C 45 % 73 % 70 % 1021,4 hPa 0,0 l/m 3,4 km/h (1 Bft) W 270 5,9 C 10,5 C 10,9 km/h (2 Bft)
03.06.2023 04:42 23,6 C 10,5 C 9,7 C 10,8 C 45 % 73 % 70 % 1021,4 hPa 0,0 l/m 3,2 km/h (1 Bft) W-SW 247 5,9 C 10,5 C 10,9 km/h (2 Bft)
03.06.2023 04:40 23,6 C 10,6 C 9,8 C 10,7 C 45 % 73 % 71 % 1021,4 hPa 0,0 l/m 3,1 km/h (1 Bft) S-SW 202 6,0 C 10,6 C 4,8 km/h (1 Bft)
03.06.2023 04:38 23,6 C 10,6 C 9,9 C 10,7 C 45 % 73 % 71 % 1021,4 hPa 0,0 l/m 3,9 km/h (1 Bft) W-NW 292 6,0 C 10,6 C 4,8 km/h (1 Bft)
03.06.2023 04:36 23,6 C 10,6 C 10,0 C 10,7 C 45 % 73 % 71 % 1021,4 hPa 0,0 l/m 4,2 km/h (1 Bft) S-SW 202 6,0 C 10,6 C 10,4 km/h (2 Bft)
03.06.2023 04:34 23,6 C 10,6 C 9,9 C 10,7 C 45 % 73 % 71 % 1021,4 hPa 0,0 l/m 4,0 km/h (1 Bft) S-SO 157 6,0 C 10,6 C 10,4 km/h (2 Bft)
03.06.2023 04:32 23,6 C 10,6 C 10,0 C 10,7 C 45 % 74 % 71 % 1021,4 hPa 0,0 l/m 3,5 km/h (1 Bft) W 270 6,2 C 10,6 C 8,9 km/h (2 Bft)
03.06.2023 04:30 23,6 C 10,7 C 10,1 C 10,7 C 45 % 74 % 71 % 1021,4 hPa 0,0 l/m 3,2 km/h (1 Bft) W-SW 247 6,3 C 10,7 C 10,1 km/h (2 Bft)
03.06.2023 04:28 23,6 C 10,7 C 10,1 C 10,7 C 45 % 74 % 71 % 1021,3 hPa 0,0 l/m 2,9 km/h (1 Bft) W 270 6,3 C 10,7 C 10,1 km/h (2 Bft)
03.06.2023 04:26 23,6 C 10,7 C 10,0 C 10,7 C 45 % 73 % 71 % 1021,3 hPa 0,0 l/m 2,4 km/h (1 Bft) W 270 6,1 C 10,7 C 8,4 km/h (2 Bft)
03.06.2023 04:24 23,6 C 10,7 C 10,1 C 10,8 C 45 % 74 % 71 % 1021,3 hPa 0,0 l/m 2,9 km/h (1 Bft) W-SW 247 6,3 C 10,7 C 4,1 km/h (1 Bft)
03.06.2023 04:22 23,6 C 10,7 C 10,2 C 10,8 C 45 % 74 % 71 % 1021,3 hPa 0,0 l/m 3,7 km/h (1 Bft) S-SW 202 6,3 C 10,7 C 2,7 km/h (1 Bft)
03.06.2023 04:20 23,6 C 10,8 C 10,2 C 10,8 C 45 % 74 % 71 % 1021,3 hPa 0,0 l/m 4,7 km/h (1 Bft) N-NO 22 6,4 C 10,8 C 7,5 km/h (2 Bft)
03.06.2023 04:18 23,6 C 10,8 C 10,1 C 10,8 C 45 % 74 % 71 % 1021,3 hPa 0,0 l/m 5,1 km/h (1 Bft) W-NW 292 6,4 C 10,8 C 7,5 km/h (2 Bft)
03.06.2023 04:16 23,6 C 10,8 C 10,4 C 10,9 C 45 % 74 % 71 % 1021,3 hPa 0,0 l/m 5,6 km/h (1 Bft) SW 225 6,4 C 10,8 C 12,3 km/h (3 Bft)
03.06.2023 04:14 23,6 C 10,8 C 10,4 C 11,0 C 45 % 74 % 71 % 1021,3 hPa 0,0 l/m 5,5 km/h (1 Bft) NW 315 6,4 C 10,8 C 19,1 km/h (3 Bft)
03.06.2023 04:12 23,6 C 10,8 C 10,4 C 11,0 C 45 % 74 % 71 % 1021,3 hPa 0,0 l/m 5,5 km/h (1 Bft) SW 225 6,4 C 10,8 C 9,9 km/h (2 Bft)
03.06.2023 04:10 23,6 C 10,8 C 10,3 C 11,0 C 45 % 74 % 71 % 1021,3 hPa 0,0 l/m 4,3 km/h (1 Bft) W 270 6,4 C 10,8 C 9,9 km/h (2 Bft)
03.06.2023 04:08 23,6 C 10,8 C 10,3 C 11,1 C 45 % 74 % 70 % 1021,4 hPa 0,0 l/m 4,5 km/h (1 Bft) SW 225 6,4 C 10,8 C 8,7 km/h (2 Bft)
03.06.2023 04:06 23,6 C 10,9 C 10,3 C 11,1 C 45 % 74 % 70 % 1021,4 hPa 0,0 l/m 4,3 km/h (1 Bft) S-SW 202 6,5 C 10,9 C 12,8 km/h (3 Bft)
03.06.2023 04:04 23,6 C 10,9 C 10,4 C 11,1 C 45 % 74 % 70 % 1021,4 hPa 0,0 l/m 4,0 km/h (1 Bft) W-SW 247 6,5 C 10,9 C 12,8 km/h (3 Bft)
03.06.2023 04:02 23,6 C 10,9 C 10,4 C 11,0 C 45 % 73 % 70 % 1021,4 hPa 0,0 l/m 3,9 km/h (1 Bft) W 270 6,3 C 10,9 C 10,4 km/h (2 Bft)
03.06.2023 04:00 23,6 C 10,9 C 10,4 C 11,0 C 45 % 73 % 71 % 1021,4 hPa 0,0 l/m 4,3 km/h (1 Bft) W 270 6,3 C 10,9 C 10,9 km/h (2 Bft)
03.06.2023 03:58 23,6 C 10,9 C 10,5 C 11,0 C 45 % 73 % 71 % 1021,4 hPa 0,0 l/m 4,7 km/h (1 Bft) W-SW 247 6,3 C 10,9 C 11,1 km/h (2 Bft)
03.06.2023 03:56 23,6 C 10,9 C 10,5 C 10,9 C 45 % 73 % 71 % 1021,4 hPa 0,0 l/m 4,5 km/h (1 Bft) NW 315 6,3 C 10,9 C 11,1 km/h (2 Bft)
03.06.2023 03:54 23,6 C 10,9 C 10,5 C 10,9 C 45 % 73 % 71 % 1021,4 hPa 0,0 l/m 3,9 km/h (1 Bft) W-NW 292 6,3 C 10,9 C 8,4 km/h (2 Bft)
03.06.2023 03:52 23,6 C 10,9 C 10,3 C 10,9 C 45 % 73 % 71 % 1021,4 hPa 0,0 l/m 3,4 km/h (1 Bft) W-NW 292 6,3 C 10,9 C 12,6 km/h (3 Bft)
03.06.2023 03:50 23,6 C 10,9 C 10,3 C 10,9 C 45 % 73 % 71 % 1021,4 hPa 0,0 l/m 3,1 km/h (1 Bft) W-NW 292 6,3 C 10,9 C 12,6 km/h (3 Bft)
03.06.2023 03:48 23,6 C 10,9 C 10,2 C 10,9 C 45 % 73 % 71 % 1021,4 hPa 0,0 l/m 2,3 km/h (1 Bft) W 270 6,3 C 10,9 C 8,4 km/h (2 Bft)
03.06.2023 03:46 23,6 C 10,9 C 10,2 C 10,9 C 45 % 73 % 71 % 1021,4 hPa 0,0 l/m 1,8 km/h (1 Bft) W-NW 292 6,3 C 10,9 C 8,4 km/h (2 Bft)
03.06.2023 03:44 23,6 C 10,9 C 10,2 C 10,9 C 45 % 73 % 71 % 1021,4 hPa 0,0 l/m 2,3 km/h (1 Bft) W-SW 247 6,3 C 10,9 C 5,3 km/h (1 Bft)
03.06.2023 03:42 23,6 C 10,9 C 10,2 C 10,9 C 45 % 73 % 71 % 1021,4 hPa 0,0 l/m 2,9 km/h (1 Bft) W-SW 247 6,3 C 10,9 C 5,3 km/h (1 Bft)
03.06.2023 03:40 23,6 C 10,9 C 10,2 C 10,9 C 45 % 73 % 70 % 1021,4 hPa 0,0 l/m 3,7 km/h (1 Bft) S 180 6,3 C 10,9 C 5,3 km/h (1 Bft)
03.06.2023 03:38 23,6 C 10,9 C 10,2 C 10,9 C 45 % 73 % 70 % 1021,4 hPa 0,0 l/m 4,0 km/h (1 Bft) W 270 6,3 C 10,9 C 8,9 km/h (2 Bft)
03.06.2023 03:36 23,6 C 11,0 C 10,2 C 10,9 C 45 % 73 % 70 % 1021,4 hPa 0,0 l/m 4,7 km/h (1 Bft) SW 225 6,4 C 11,0 C 8,9 km/h (2 Bft)
03.06.2023 03:34 23,6 C 10,9 C 10,2 C 11,0 C 45 % 73 % 69 % 1021,4 hPa 0,0 l/m 4,3 km/h (1 Bft) W-SW 247 6,3 C 10,9 C 12,1 km/h (2 Bft)
03.06.2023 03:32 23,6 C 10,9 C 10,0 C 11,1 C 45 % 73 % 69 % 1021,4 hPa 0,0 l/m 3,7 km/h (1 Bft) W 270 6,3 C 10,9 C 12,3 km/h (3 Bft)
03.06.2023 03:30 23,6 C 10,9 C 9,8 C 11,2 C 45 % 72 % 69 % 1021,4 hPa 0,0 l/m 2,7 km/h (1 Bft) W 270 6,1 C 10,9 C 12,3 km/h (3 Bft)
03.06.2023 03:28 23,6 C 10,9 C 9,7 C 11,3 C 45 % 72 % 69 % 1021,4 hPa 0,0 l/m 2,4 km/h (1 Bft) W-SW 247 6,1 C 10,9 C 7,2 km/h (2 Bft)
03.06.2023 03:26 23,6 C 10,9 C 9,6 C 11,3 C 45 % 72 % 69 % 1021,4 hPa 0,0 l/m 2,1 km/h (1 Bft) W 270 6,1 C 10,9 C 9,7 km/h (2 Bft)
03.06.2023 03:24 23,6 C 10,9 C 9,3 C 11,3 C 45 % 72 % 69 % 1021,4 hPa 0,0 l/m 1,8 km/h (1 Bft) W-SW 247 6,1 C 10,9 C 9,7 km/h (2 Bft)
03.06.2023 03:22 23,6 C 11,0 C 9,5 C 11,4 C 45 % 71 % 69 % 1021,4 hPa 0,0 l/m 2,3 km/h (1 Bft) SW 225 5,9 C 11,0 C 4,3 km/h (1 Bft)
03.06.2023 03:20 23,6 C 11,0 C 9,6 C 11,4 C 45 % 71 % 69 % 1021,4 hPa 0,0 l/m 3,1 km/h (1 Bft) SW 225 5,9 C 11,0 C 4,8 km/h (1 Bft)
03.06.2023 03:18 23,6 C 11,1 C 9,8 C 11,4 C 45 % 71 % 69 % 1021,4 hPa 0,0 l/m 3,4 km/h (1 Bft) N-NO 22 6,0 C 11,1 C 8,4 km/h (2 Bft)
03.06.2023 03:16 23,6 C 11,1 C 9,9 C 11,4 C 45 % 72 % 69 % 1021,4 hPa 0,0 l/m 3,9 km/h (1 Bft) SW 225 6,2 C 11,1 C 8,4 km/h (2 Bft)
03.06.2023 03:14 23,6 C 11,1 C 9,8 C 11,4 C 45 % 72 % 69 % 1021,4 hPa 0,0 l/m 4,5 km/h (1 Bft) W 270 6,2 C 11,1 C 11,3 km/h (2 Bft)
03.06.2023 03:12 23,6 C 11,1 C 9,7 C 11,4 C 45 % 72 % 69 % 1021,4 hPa 0,0 l/m 4,2 km/h (1 Bft) S 180 6,2 C 11,1 C 11,3 km/h (2 Bft)
03.06.2023 03:10 23,6 C 11,1 C 9,5 C 11,4 C 45 % 71 % 69 % 1021,4 hPa 0,0 l/m 3,4 km/h (1 Bft) W-SW 247 6,0 C 11,1 C 9,9 km/h (2 Bft)
03.06.2023 03:08 23,6 C 11,1 C 9,5 C 11,4 C 45 % 71 % 69 % 1021,2 hPa 0,0 l/m 3,5 km/h (1 Bft) NW 315 6,0 C 11,1 C 9,9 km/h (2 Bft)
03.06.2023 03:06 23,6 C 11,1 C 9,1 C 11,5 C 45 % 71 % 69 % 1021,2 hPa 0,0 l/m 2,7 km/h (1 Bft) SW 225 6,0 C 11,1 C 9,2 km/h (2 Bft)
03.06.2023 03:04 23,6 C 11,2 C 9,4 C 11,6 C 45 % 71 % 69 % 1021,2 hPa 0,0 l/m 2,3 km/h (1 Bft) W 270 6,1 C 11,2 C 7,5 km/h (2 Bft)
03.06.2023 03:02 23,6 C 11,2 C 9,4 C 11,6 C 45 % 70 % 69 % 1021,2 hPa 0,0 l/m 2,1 km/h (1 Bft) W-SW 247 5,9 C 11,2 C 0,0 km/h (0 Bft)
03.06.2023 03:00 23,6 C 11,3 C 9,6 C 11,5 C 45 % 70 % 69 % 1021,2 hPa 0,0 l/m 1,9 km/h (1 Bft) W 270 6,0 C 11,3 C 8,4 km/h (2 Bft)
03.06.2023 02:58 23,6 C 11,3 C 9,7 C 11,5 C 45 % 70 % 69 % 1021,2 hPa 0,0 l/m 2,1 km/h (1 Bft) N-NO 22 6,0 C 11,3 C 8,4 km/h (2 Bft)
03.06.2023 02:56 23,6 C 11,4 C 9,7 C 11,6 C 45 % 70 % 69 % 1021,2 hPa 0,0 l/m 2,1 km/h (1 Bft) W 270 6,1 C 11,4 C 6,0 km/h (2 Bft)
03.06.2023 02:54 23,6 C 11,5 C 9,8 C 11,7 C 45 % 70 % 68 % 1021,2 hPa 0,0 l/m 2,1 km/h (1 Bft) S-SW 202 6,2 C 11,5 C 6,0 km/h (2 Bft)
03.06.2023 02:52 23,6 C 11,6 C 10,3 C 11,7 C 45 % 70 % 68 % 1021,2 hPa 0,0 l/m 3,1 km/h (1 Bft) W 270 6,3 C 11,6 C 5,1 km/h (1 Bft)
03.06.2023 02:50 23,6 C 11,6 C 10,4 C 11,7 C 45 % 70 % 68 % 1021,2 hPa 0,0 l/m 2,9 km/h (1 Bft) O 90 6,3 C 11,6 C 7,0 km/h (2 Bft)
03.06.2023 02:48 23,6 C 11,6 C 10,4 C 11,7 C 45 % 70 % 68 % 1021,2 hPa 0,0 l/m 3,7 km/h (1 Bft) O-SO 112 6,3 C 11,6 C 7,0 km/h (2 Bft)
03.06.2023 02:46 23,6 C 11,6 C 10,3 C 11,7 C 45 % 70 % 68 % 1021,2 hPa 0,0 l/m 3,4 km/h (1 Bft) SW 225 6,3 C 11,6 C 5,6 km/h (1 Bft)
03.06.2023 02:44 23,6 C 11,7 C 10,3 C 11,8 C 45 % 70 % 68 % 1021,2 hPa 0,0 l/m 3,5 km/h (1 Bft) S-SW 202 6,4 C 11,7 C 12,3 km/h (3 Bft)
03.06.2023 02:42 23,6 C 11,7 C 9,9 C 11,9 C 45 % 70 % 67 % 1021,2 hPa 0,0 l/m 3,4 km/h (1 Bft) S-SO 157 6,4 C 11,7 C 12,3 km/h (3 Bft)
03.06.2023 02:40 23,6 C 11,7 C 9,9 C 11,9 C 45 % 70 % 67 % 1021,2 hPa 0,0 l/m 2,7 km/h (1 Bft) NO 45 6,4 C 11,7 C 9,4 km/h (2 Bft)
03.06.2023 02:38 23,6 C 11,7 C 10,3 C 12,0 C 45 % 70 % 67 % 1021,2 hPa 0,0 l/m 2,6 km/h (1 Bft) W 270 6,4 C 11,7 C 9,4 km/h (2 Bft)
03.06.2023 02:36 23,6 C 11,8 C 10,5 C 12,1 C 45 % 70 % 67 % 1021,2 hPa 0,0 l/m 2,4 km/h (1 Bft) NO 45 6,5 C 11,8 C 6,3 km/h (2 Bft)
03.06.2023 02:34 23,6 C 11,8 C 10,4 C 12,1 C 45 % 70 % 67 % 1021,2 hPa 0,0 l/m 3,1 km/h (1 Bft) S 180 6,5 C 11,8 C 18,1 km/h (3 Bft)
03.06.2023 02:32 23,6 C 11,8 C 10,4 C 12,2 C 45 % 69 % 67 % 1021,2 hPa 0,0 l/m 3,4 km/h (1 Bft) W-NW 292 6,3 C 11,8 C 9,9 km/h (2 Bft)
03.06.2023 02:30 23,6 C 11,9 C 10,2 C 12,2 C 45 % 69 % 67 % 1021,2 hPa 0,0 l/m 3,7 km/h (1 Bft) S-SW 202 6,4 C 11,9 C 9,9 km/h (2 Bft)
03.06.2023 02:28 23,6 C 11,9 C 10,2 C 12,2 C 45 % 69 % 67 % 1021,3 hPa 0,0 l/m 3,7 km/h (1 Bft) N-NW 337 6,4 C 11,9 C 8,7 km/h (2 Bft)
03.06.2023 02:26 23,6 C 11,9 C 10,3 C 12,2 C 46 % 69 % 67 % 1021,3 hPa 0,0 l/m 4,0 km/h (1 Bft) W 270 6,4 C 11,9 C 11,6 km/h (2 Bft)
03.06.2023 02:24 23,6 C 11,9 C 10,2 C 12,1 C 46 % 69 % 67 % 1021,3 hPa 0,0 l/m 3,5 km/h (1 Bft) W 270 6,4 C 11,9 C 11,6 km/h (2 Bft)
03.06.2023 02:22 23,7 C 12,0 C 9,9 C 12,1 C 46 % 69 % 67 % 1021,3 hPa 0,0 l/m 3,2 km/h (1 Bft) N-NW 337 6,5 C 12,0 C 9,7 km/h (2 Bft)
03.06.2023 02:20 23,7 C 12,0 C 9,9 C 12,1 C 46 % 69 % 67 % 1021,3 hPa 0,0 l/m 3,5 km/h (1 Bft) N-NW 337 6,5 C 12,0 C 6,0 km/h (2 Bft)
03.06.2023 02:18 23,7 C 12,1 C 9,9 C 12,2 C 46 % 69 % 67 % 1021,3 hPa 0,0 l/m 3,9 km/h (1 Bft) O 90 6,6 C 12,1 C 6,0 km/h (2 Bft)
03.06.2023 02:16 23,7 C 12,2 C 9,5 C 12,3 C 46 % 68 % 67 % 1021,3 hPa 0,0 l/m 3,5 km/h (1 Bft) NW 315 6,5 C 12,2 C 6,8 km/h (2 Bft)
03.06.2023 02:14 23,7 C 12,2 C 9,6 C 12,3 C 46 % 68 % 67 % 1021,3 hPa 0,0 l/m 3,1 km/h (1 Bft) W 270 6,5 C 12,2 C 6,8 km/h (2 Bft)
03.06.2023 02:12 23,7 C 12,3 C 9,9 C 12,3 C 46 % 68 % 67 % 1021,3 hPa 0,0 l/m 2,7 km/h (1 Bft) NW 315 6,6 C 12,3 C 7,0 km/h (2 Bft)
03.06.2023 02:10 23,7 C 12,3 C 9,9 C 12,2 C 46 % 67 % 67 % 1021,3 hPa 0,0 l/m 2,3 km/h (1 Bft) S-SW 202 6,4 C 12,3 C 7,0 km/h (2 Bft)
03.06.2023 02:08 23,7 C 12,4 C 9,7 C 12,3 C 46 % 67 % 67 % 1021,3 hPa 0,0 l/m 1,4 km/h (1 Bft) W-NW 292 6,4 C 12,4 C 6,3 km/h (2 Bft)
03.06.2023 02:06 23,7 C 12,5 C 9,7 C 12,6 C 46 % 67 % 67 % 1021,3 hPa 0,0 l/m 1,6 km/h (1 Bft) N-NW 337 6,5 C 12,5 C 4,1 km/h (1 Bft)
03.06.2023 02:04 23,7 C 12,5 C 10,1 C 12,7 C 46 % 67 % 66 % 1021,3 hPa 0,0 l/m 1,9 km/h (1 Bft) W 270 6,5 C 12,5 C 4,1 km/h (1 Bft)
03.06.2023 02:02 23,7 C 12,6 C 10,4 C 12,7 C 46 % 67 % 66 % 1021,3 hPa 0,0 l/m 2,4 km/h (1 Bft) SW 225 6,6 C 12,6 C 3,4 km/h (1 Bft)
03.06.2023 02:00 23,7 C 12,6 C 10,4 C 12,9 C 46 % 67 % 66 % 1021,3 hPa 0,0 l/m 2,6 km/h (1 Bft) SW 225 6,6 C 12,6 C 4,1 km/h (1 Bft)
03.06.2023 01:58 23,7 C 12,7 C 10,5 C 13,0 C 46 % 67 % 66 % 1021,3 hPa 0,0 l/m 3,1 km/h (1 Bft) N-NW 337 6,7 C 12,7 C 5,6 km/h (1 Bft)
03.06.2023 01:56 23,7 C 12,8 C 10,6 C 13,1 C 46 % 67 % 66 % 1021,3 hPa 0,0 l/m 3,5 km/h (1 Bft) W-SW 247 6,8 C 12,8 C 10,9 km/h (2 Bft)
03.06.2023 01:54 23,7 C 12,7 C 10,7 C 13,2 C 46 % 67 % 66 % 1021,3 hPa 0,0 l/m 3,1 km/h (1 Bft) S-SO 157 6,7 C 12,7 C 10,9 km/h (2 Bft)
03.06.2023 01:52 23,7 C 12,8 C 11,2 C 13,2 C 46 % 67 % 65 % 1021,3 hPa 0,0 l/m 2,9 km/h (1 Bft) N-NW 337 6,8 C 12,8 C 6,3 km/h (2 Bft)
03.06.2023 01:50 23,7 C 12,9 C 11,3 C 13,3 C 46 % 67 % 65 % 1021,3 hPa 0,0 l/m 3,4 km/h (1 Bft) W 270 6,9 C 12,9 C 6,3 km/h (2 Bft)
03.06.2023 01:48 23,7 C 12,9 C 11,3 C 13,4 C 46 % 67 % 65 % 1021,3 hPa 0,0 l/m 3,1 km/h (1 Bft) S-SW 202 6,9 C 12,9 C 7,5 km/h (2 Bft)
03.06.2023 01:46 23,7 C 13,1 C 11,5 C 13,4 C 46 % 66 % 65 % 1021,3 hPa 0,0 l/m 2,6 km/h (1 Bft) N 360 6,9 C 13,1 C 7,5 km/h (2 Bft)
03.06.2023 01:44 23,7 C 13,1 C 11,7 C 13,4 C 46 % 66 % 65 % 1021,3 hPa 0,0 l/m 2,6 km/h (1 Bft) W-NW 292 6,9 C 13,1 C 9,7 km/h (2 Bft)
03.06.2023 01:42 23,7 C 13,1 C 12,1 C 13,5 C 46 % 66 % 65 % 1021,3 hPa 0,0 l/m 2,6 km/h (1 Bft) S-SO 157 6,9 C 13,1 C 9,7 km/h (2 Bft)
03.06.2023 01:40 23,7 C 13,2 C 12,1 C 13,5 C 46 % 66 % 65 % 1021,3 hPa 0,0 l/m 1,8 km/h (1 Bft) O-NO 67 7,0 C 13,2 C 8,4 km/h (2 Bft)
03.06.2023 01:38 23,8 C 13,2 C 12,1 C 13,5 C 46 % 66 % 65 % 1021,3 hPa 0,0 l/m 1,3 km/h (1 Bft) SW 225 7,0 C 13,2 C 3,9 km/h (1 Bft)
03.06.2023 01:36 23,8 C 13,3 C 12,3 C 13,6 C 46 % 66 % 65 % 1021,3 hPa 0,0 l/m 1,6 km/h (1 Bft) W-SW 247 7,1 C 13,3 C 3,9 km/h (1 Bft)
03.06.2023 01:34 23,7 C 13,3 C 12,7 C 13,6 C 46 % 66 % 65 % 1021,3 hPa 0,0 l/m 1,8 km/h (1 Bft) S 180 7,1 C 13,3 C 6,8 km/h (2 Bft)
03.06.2023 01:32 23,8 C 13,4 C 12,7 C 13,6 C 46 % 66 % 65 % 1021,3 hPa 0,0 l/m 2,6 km/h (1 Bft) O 90 7,2 C 13,4 C 6,8 km/h (2 Bft)
03.06.2023 01:30 23,8 C 13,4 C 12,7 C 13,6 C 46 % 66 % 65 % 1021,3 hPa 0,0 l/m 3,2 km/h (1 Bft) S-SW 202 7,2 C 13,4 C 2,7 km/h (1 Bft)
03.06.2023 01:28 23,8 C 13,4 C 12,8 C 13,7 C 46 % 66 % 65 % 1021,6 hPa 0,0 l/m 3,4 km/h (1 Bft) S-SW 202 7,2 C 13,4 C 0,0 km/h (0 Bft)
03.06.2023 01:26 23,8 C 13,5 C 12,7 C 13,8 C 46 % 66 % 65 % 1021,6 hPa 0,0 l/m 3,5 km/h (1 Bft) W 270 7,3 C 13,5 C 8,7 km/h (2 Bft)
03.06.2023 01:24 23,8 C 13,5 C 12,8 C 13,8 C 46 % 66 % 65 % 1021,6 hPa 0,0 l/m 3,5 km/h (1 Bft) O-SO 112 7,3 C 13,5 C 17,4 km/h (3 Bft)
03.06.2023 01:22 23,8 C 13,5 C 12,8 C 13,8 C 46 % 66 % 65 % 1021,6 hPa 0,0 l/m 3,1 km/h (1 Bft) SO 135 7,3 C 13,5 C 17,4 km/h (3 Bft)
03.06.2023 01:20 23,8 C 13,6 C 12,8 C 13,9 C 46 % 66 % 65 % 1021,6 hPa 0,0 l/m 1,8 km/h (1 Bft) S-SO 157 7,4 C 13,6 C 10,6 km/h (2 Bft)
03.06.2023 01:18 23,8 C 13,6 C 12,8 C 13,9 C 46 % 66 % 65 % 1021,6 hPa 0,0 l/m 1,8 km/h (1 Bft) S-SO 157 7,4 C 13,6 C 7,0 km/h (2 Bft)
03.06.2023 01:16 23,8 C 13,6 C 12,8 C 13,9 C 46 % 66 % 65 % 1021,6 hPa 0,0 l/m 2,4 km/h (1 Bft) S-SO 157 7,4 C 13,6 C 7,0 km/h (2 Bft)
03.06.2023 01:14 23,8 C 13,7 C 12,8 C 13,9 C 46 % 66 % 65 % 1021,6 hPa 0,0 l/m 2,6 km/h (1 Bft) S-SW 202 7,5 C 13,7 C 0,0 km/h (0 Bft)
03.06.2023 01:12 23,8 C 13,7 C 12,8 C 13,9 C 46 % 66 % 65 % 1021,6 hPa 0,0 l/m 2,9 km/h (1 Bft) SW 225 7,5 C 13,7 C 6,8 km/h (2 Bft)
03.06.2023 01:10 23,8 C 13,7 C 12,8 C 14,0 C 46 % 66 % 65 % 1021,6 hPa 0,0 l/m 3,2 km/h (1 Bft) W 270 7,5 C 13,7 C 6,8 km/h (2 Bft)
03.06.2023 01:08 23,8 C 13,7 C 12,9 C 14,0 C 46 % 66 % 65 % 1021,6 hPa 0,0 l/m 4,0 km/h (1 Bft) N 360 7,5 C 13,7 C 6,3 km/h (2 Bft)
03.06.2023 01:06 23,8 C 13,8 C 13,1 C 14,0 C 46 % 66 % 65 % 1021,6 hPa 0,0 l/m 4,2 km/h (1 Bft) S 180 7,6 C 13,8 C 6,5 km/h (2 Bft)
03.06.2023 01:04 23,8 C 13,8 C 13,1 C 14,1 C 46 % 66 % 65 % 1021,6 hPa 0,0 l/m 4,0 km/h (1 Bft) S-SW 202 7,6 C 13,8 C 6,5 km/h (2 Bft)
03.06.2023 01:02 23,8 C 13,8 C 13,1 C 14,1 C 46 % 66 % 65 % 1021,6 hPa 0,0 l/m 3,9 km/h (1 Bft) SO 135 7,6 C 13,8 C 9,4 km/h (2 Bft)
03.06.2023 01:00 23,8 C 13,9 C 13,1 C 14,1 C 46 % 66 % 65 % 1021,6 hPa 0,0 l/m 4,0 km/h (1 Bft) SO 135 7,7 C 13,9 C 12,6 km/h (3 Bft)
03.06.2023 00:58 23,8 C 13,9 C 13,1 C 14,2 C 46 % 66 % 65 % 1021,6 hPa 0,0 l/m 3,4 km/h (1 Bft) S-SW 202 7,7 C 13,9 C 12,6 km/h (3 Bft)
03.06.2023 00:56 23,8 C 13,9 C 13,1 C 14,2 C 46 % 66 % 65 % 1021,6 hPa 0,0 l/m 2,6 km/h (1 Bft) O-SO 112 7,7 C 13,9 C 5,3 km/h (1 Bft)
03.06.2023 00:54 23,8 C 13,9 C 12,9 C 14,2 C 46 % 66 % 65 % 1021,6 hPa 0,0 l/m 2,4 km/h (1 Bft) S-SW 202 7,7 C 13,9 C 8,0 km/h (2 Bft)
03.06.2023 00:52 23,8 C 13,9 C 12,8 C 14,2 C 46 % 66 % 65 % 1021,6 hPa 0,0 l/m 3,4 km/h (1 Bft) O-NO 67 7,7 C 13,9 C 10,4 km/h (2 Bft)
03.06.2023 00:50 23,8 C 13,9 C 12,7 C 14,2 C 46 % 66 % 65 % 1021,6 hPa 0,0 l/m 3,1 km/h (1 Bft) S-SW 202 7,7 C 13,9 C 10,4 km/h (2 Bft)
03.06.2023 00:48 23,8 C 14,1 C 12,6 C 14,2 C 46 % 66 % 65 % 1021,2 hPa 0,0 l/m 3,2 km/h (1 Bft) NO 45 7,8 C 14,1 C 6,0 km/h (2 Bft)
03.06.2023 00:46 23,8 C 14,1 C 12,8 C 14,2 C 46 % 66 % 65 % 1021,2 hPa 0,0 l/m 3,9 km/h (1 Bft) S 180 7,8 C 14,1 C 6,0 km/h (2 Bft)
03.06.2023 00:44 23,8 C 14,1 C 12,8 C 14,2 C 46 % 66 % 65 % 1021,2 hPa 0,0 l/m 4,2 km/h (1 Bft) W 270 7,8 C 14,1 C 16,7 km/h (3 Bft)
03.06.2023 00:42 23,8 C 14,2 C 12,9 C 14,1 C 46 % 66 % 65 % 1021,2 hPa 0,0 l/m 3,9 km/h (1 Bft) S-SW 202 7,9 C 14,2 C 15,9 km/h (3 Bft)
03.06.2023 00:40 23,8 C 14,2 C 12,9 C 14,1 C 46 % 65 % 65 % 1021,2 hPa 0,0 l/m 3,4 km/h (1 Bft) N 360 7,7 C 14,2 C 6,0 km/h (2 Bft)
03.06.2023 00:38 23,8 C 14,2 C 12,9 C 14,2 C 46 % 65 % 65 % 1021,2 hPa 0,0 l/m 3,2 km/h (1 Bft) SO 135 7,7 C 14,2 C 7,0 km/h (2 Bft)
03.06.2023 00:36 23,8 C 14,2 C 12,8 C 14,3 C 46 % 65 % 65 % 1021,2 hPa 0,0 l/m 2,3 km/h (1 Bft) SW 225 7,7 C 14,2 C 7,0 km/h (2 Bft)
03.06.2023 00:34 23,8 C 14,3 C 13,1 C 14,3 C 47 % 65 % 64 % 1021,2 hPa 0,0 l/m 1,9 km/h (1 Bft) S-SW 202 7,8 C 14,3 C 6,0 km/h (2 Bft)
03.06.2023 00:32 23,8 C 14,3 C 13,1 C 14,3 C 47 % 65 % 64 % 1021,2 hPa 0,0 l/m 2,4 km/h (1 Bft) S 180 7,8 C 14,3 C 6,3 km/h (2 Bft)
03.06.2023 00:30 23,8 C 14,3 C 12,9 C 14,3 C 47 % 65 % 64 % 1021,2 hPa 0,0 l/m 2,6 km/h (1 Bft) O-SO 112 7,8 C 14,3 C 6,3 km/h (2 Bft)
03.06.2023 00:28 23,8 C 14,3 C 12,8 C 14,3 C 47 % 65 % 64 % 1020,9 hPa 0,0 l/m 2,4 km/h (1 Bft) W-SW 247 7,8 C 14,3 C 5,1 km/h (1 Bft)
03.06.2023 00:26 23,9 C 14,3 C 12,8 C 14,3 C 47 % 65 % 64 % 1020,9 hPa 0,0 l/m 2,7 km/h (1 Bft) SW 225 7,8 C 14,3 C 5,1 km/h (1 Bft)
03.06.2023 00:24 23,9 C 14,2 C 12,8 C 14,3 C 47 % 65 % 64 % 1020,9 hPa 0,0 l/m 3,2 km/h (1 Bft) SW 225 7,7 C 14,2 C 10,6 km/h (2 Bft)
03.06.2023 00:22 23,9 C 14,2 C 12,7 C 14,3 C 47 % 65 % 64 % 1020,9 hPa 0,0 l/m 3,1 km/h (1 Bft) W-SW 247 7,7 C 14,2 C 8,7 km/h (2 Bft)
03.06.2023 00:20 23,9 C 14,3 C 12,4 C 14,3 C 47 % 64 % 64 % 1020,9 hPa 0,0 l/m 2,6 km/h (1 Bft) W-SW 247 7,6 C 14,3 C 7,7 km/h (2 Bft)
03.06.2023 00:18 23,9 C 14,4 C 11,9 C 14,3 C 47 % 64 % 64 % 1020,9 hPa 0,0 l/m 2,4 km/h (1 Bft) W 270 7,7 C 14,4 C 6,5 km/h (2 Bft)
03.06.2023 00:16 23,9 C 14,5 C 11,8 C 14,4 C 47 % 64 % 64 % 1020,9 hPa 0,0 l/m 2,4 km/h (1 Bft) W 270 7,8 C 14,5 C 5,6 km/h (1 Bft)
03.06.2023 00:14 23,9 C 14,5 C 12,0 C 14,5 C 47 % 64 % 64 % 1020,9 hPa 0,0 l/m 1,9 km/h (1 Bft) W-SW 247 7,8 C 14,5 C 5,6 km/h (1 Bft)
03.06.2023 00:12 23,9 C 14,5 C 12,2 C 14,5 C 47 % 64 % 64 % 1020,9 hPa 0,0 l/m 1,8 km/h (1 Bft) W 270 7,8 C 14,5 C 4,3 km/h (1 Bft)
03.06.2023 00:10 23,9 C 14,6 C 12,4 C 14,6 C 47 % 64 % 64 % 1020,9 hPa 0,0 l/m 1,6 km/h (1 Bft) W 270 7,9 C 14,6 C 4,3 km/h (1 Bft)
03.06.2023 00:08 23,9 C 14,6 C 12,6 C 14,6 C 47 % 64 % 64 % 1020,8 hPa 0,0 l/m 1,8 km/h (1 Bft) SW 225 7,9 C 14,6 C 3,4 km/h (1 Bft)
03.06.2023 00:06 23,9 C 14,6 C 12,6 C 14,6 C 47 % 64 % 64 % 1020,8 hPa 0,0 l/m 1,3 km/h (1 Bft) W 270 7,9 C 14,6 C 5,8 km/h (2 Bft)
03.06.2023 00:04 23,9 C 14,7 C 12,8 C 14,6 C 47 % 64 % 64 % 1020,8 hPa 0,0 l/m 1,3 km/h (1 Bft) W 270 8,0 C 14,7 C 5,8 km/h (2 Bft)
03.06.2023 00:02 23,9 C 14,7 C 12,8 C 14,6 C 47 % 64 % 64 % 1020,8 hPa 0,0 l/m 1,1 km/h (1 Bft) O-NO 67 8,0 C 14,7 C 3,9 km/h (1 Bft)
03.06.2023 00:00 23,9 C 14,8 C 13,0 C 14,6 C 47 % 64 % 64 % 1020,8 hPa 0,0 l/m 1,4 km/h (1 Bft) W 270 8,1 C 14,8 C 6,8 km/h (2 Bft)
_ Min-Zeit 02:24 06:16 05:14 05:34 13:48 16:32 16:12 16:30 - 00:02 - - 07:14 06:16 01:14
Minimum _ 23,6 C 9,7 C 8,4 C 9,7 C 44 % 43 % 44 % 1020,6 hPa - 1,1 km/h (1 Bft) - - 4,7 C 9,7 C 0,0 km/h (0 Bft)
_ Max-Zeit 00:00 15:10 12:42 16:28 00:00 04:04 05:40 08:30 00:00 11:26 - - 15:08 15:10 09:04
Maximum _ 23,9 C 20,9 C 43,5 C 21,2 C 47 % 74 % 72 % 1022,4 hPa 0,0 l/m 7,9 km/h
SW (2 Bft)
- - 10,0 C 20,9 C 26,6 km/h
S-SO (4 Bft)
Durchschnitt _ 23,6 C 14,8 C 18,6 C 14,8 C 45 % 60 % 59 % 1021,7 hPa #0,0 l/m 4,1 km/h (1 Bft) W - 6,7 C 14,8 C 10,4 km/h (2 Bft)